DL9MFL-6 Weather Reports


time (UTC)temp
C
wind
direction
speed
KPH
gust
KPH
rain 1hr
cm
rain 24hr
cm
rain mn
cm
humidity
%
barometer
mb
20260508202701 13 80 6.4 16.1 0.00 0.00 0.00 64 1014.2
20260508202600 13 65 4.8 16.1 0.00 0.00 0.00 64 1014.1
20260508202501 13 68 4.8 16.1 0.00 0.00 0.00 64 1014.2
20260508202401 13 20 4.8 16.1 0.00 0.00 0.00 64 1014.2
20260508202301 13 116 4.8 16.1 0.00 0.00 0.00 64 1014.2
20260508202201 13 88 4.8 16.1 0.00 0.00 0.00 64 1014.2
20260508202100 13 82 4.8 17.7 0.00 0.00 0.00 64 1014.1
20260508202000 13 109 6.4 17.7 0.00 0.00 0.00 64 1014.1
20260508201900 13 73 4.8 17.7 0.00 0.00 0.00 63 1014.1
20260508201800 13 114 4.8 17.7 0.00 0.00 0.00 64 1014.2
20260508201701 13 125 6.4 17.7 0.00 0.00 0.00 64 1014.2
20260508201601 13 84 6.4 17.7 0.00 0.00 0.00 63 1014.2
20260508201501 13 57 6.4 17.7 0.00 0.00 0.00 63 1014.2
20260508201401 13 125 6.4 17.7 0.00 0.00 0.00 63 1014.1
20260508201300 13 60 6.4 17.7 0.00 0.00 0.00 64 1014.1
20260508201200 13 96 6.4 17.7 0.00 0.00 0.00 64 1014.1
20260508201100 13 69 6.4 14.5 0.00 0.00 0.00 63 1014.1
20260508201001 13 53 6.4 17.7 0.00 0.00 0.00 63 1014.1
20260508200901 13 65 6.4 17.7 0.00 0.00 0.00 63 1014.1
20260508200801 13 78 6.4 17.7 0.00 0.00 0.00 63 1014.1
20260508200702 13 72 6.4 17.7 0.00 0.00 0.00 63 1014.1
20260508200602 13 71 6.4 17.7 0.00 0.00 0.00 63 1014.2
20260508200502 13 57 6.4 17.7 0.00 0.00 0.00 63 1014.2
20260508200421 13 78 6.4 17.7 0.00 0.00 0.00 63 1014.2
20260508200417 13 104 6.4 17.7 0.00 0.00 0.00 63 1014.2
20260508200413 13 75 4.8 17.7 0.00 0.00 0.00 63 1014.1
20260508200001 13 55 4.8 17.7 0.00 0.00 0.00 63 1014.1
20260508195901 13 77 4.8 17.7 0.00 0.00 0.00 63 1014.1
20260508195801 13 96 6.4 17.7 0.00 0.00 0.00 63 1014.1
20260508195701 14 84 6.4 17.7 0.00 0.00 0.00 63 1014.1
20260508195601 13 88 6.4 17.7 0.00 0.00 0.00 63 1014.1
20260508195501 14 105 6.4 17.7 0.00 0.00 0.00 63 1014.1
20260508195400 14 59 6.4 17.7 0.00 0.00 0.00 63 1013.9
20260508195300 14 69 6.4 14.5 0.00 0.00 0.00 63 1013.9
20260508195201 14 73 6.4 14.5 0.00 0.00 0.00 63 1014.1
20260508195101 14 87 4.8 14.5 0.00 0.00 0.00 63 1013.9
20260508195000 14 88 4.8 14.5 0.00 0.00 0.00 63 1013.9
20260508194900 14 71 4.8 14.5 0.00 0.00 0.00 63 1013.9
20260508194800 14 72 4.8 16.1 0.00 0.00 0.00 63 1013.9
20260508194701 14 74 4.8 16.1 0.00 0.00 0.00 62 1013.9
20260508194601 14 62 4.8 16.1 0.00 0.00 0.00 63 1013.9
20260508194500 14 82 6.4 16.1 0.00 0.00 0.00 62 1013.9
20260508194419 14 103 6.4 16.1 0.00 0.00 0.00 63 1013.9
20260508194415 14 101 6.4 16.1 0.00 0.00 0.00 62 1013.9
20260508194411 14 88 6.4 16.1 0.00 0.00 0.00 62 1013.9
20260508194102 14 111 6.4 16.1 0.00 0.00 0.00 62 1013.9
20260508194001 14 74 6.4 16.1 0.00 0.00 0.00 62 1013.9
20260508193920 14 65 6.4 16.1 0.00 0.00 0.00 62 1013.8
20260508193916 14 74 6.4 16.1 0.00 0.00 0.00 62 1013.8
20260508193912 14 80 6.4 16.1 0.00 0.00 0.00 62 1013.8
20260508193601 14 46 6.4 17.7 0.00 0.00 0.00 62 1013.8
20260508193501 14 94 6.4 17.7 0.00 0.00 0.00 62 1013.7
20260508193401 14 137 6.4 17.7 0.00 0.00 0.00 62 1013.8
20260508193301 14 81 6.4 17.7 0.00 0.00 0.00 62 1013.8
20260508193201 14 77 6.4 17.7 0.00 0.00 0.00 62 1013.7
20260508193101 14 91 6.4 17.7 0.00 0.00 0.00 62 1013.6
20260508193001 14 51 6.4 17.7 0.00 0.00 0.00 62 1013.7
20260508192920 14 66 6.4 17.7 0.00 0.00 0.00 62 1013.6
20260508192916 14 84 6.4 17.7 0.00 0.00 0.00 62 1013.6
20260508192912 14 64 6.4 17.7 0.00 0.00 0.00 62 1013.7
20260508192601 14 91 6.4 17.7 0.00 0.00 0.00 62 1013.6
20260508192501 14 101 6.4 17.7 0.00 0.00 0.00 62 1013.6
20260508192401 14 86 6.4 17.7 0.00 0.00 0.00 62 1013.6
20260508192301 14 74 6.4 17.7 0.00 0.00 0.00 62 1013.6
20260508192200 15 94 4.8 17.7 0.00 0.00 0.00 62 1013.6
20260508192100 15 77 4.8 19.3 0.00 0.00 0.00 62 1013.6
20260508192006 15 55 4.8 19.3 0.00 0.00 0.00 62 1013.6
20260508191901 15 109 4.8 19.3 0.00 0.00 0.00 61 1013.6
20260508191801 15 84 4.8 19.3 0.00 0.00 0.00 61 1013.6
20260508191701 15 91 4.8 19.3 0.00 0.00 0.00 61 1013.6
20260508191600 15 63 4.8 19.3 0.00 0.00 0.00 62 1013.5
20260508191500 15 83 4.8 19.3 0.00 0.00 0.00 61 1013.6
20260508191401 15 98 6.4 19.3 0.00 0.00 0.00 61 1013.5
20260508191301 15 105 6.4 19.3 0.00 0.00 0.00 61 1013.5
20260508191201 15 78 6.4 19.3 0.00 0.00 0.00 61 1013.4
20260508191101 15 99 6.4 14.5 0.00 0.00 0.00 61 1013.5
20260508191001 15 68 6.4 14.5 0.00 0.00 0.00 61 1013.4
20260508190901 15 72 6.4 14.5 0.00 0.00 0.00 61 1013.4
20260508190801 15 48 6.4 14.5 0.00 0.00 0.00 61 1013.4
20260508190701 15 53 6.4 14.5 0.00 0.00 0.00 61 1013.4
20260508190601 15 111 6.4 14.5 0.00 0.00 0.00 61 1013.4
20260508190501 15 76 6.4 14.5 0.00 0.00 0.00 61 1013.3
20260508190421 15 68 6.4 14.5 0.00 0.00 0.00 61 1013.4
20260508190417 15 78 6.4 14.5 0.00 0.00 0.00 61 1013.3
20260508190413 15 90 6.4 14.5 0.00 0.00 0.00 61 1013.3
20260508190001 15 71 6.4 14.5 0.00 0.00 0.00 60 1013.3
20260508185901 15 109 6.4 14.5 0.00 0.00 0.00 61 1013.3
20260508185801 15 61 6.4 14.5 0.00 0.00 0.00 60 1013.3
20260508185700 15 69 6.4 14.5 0.00 0.00 0.00 60 1013.3
20260508185600 15 88 6.4 14.5 0.00 0.00 0.00 60 1013.3
20260508185500 15 78 6.4 16.1 0.00 0.00 0.00 60 1013.2
20260508185401 15 45 6.4 16.1 0.00 0.00 0.00 60 1013.2
20260508185301 15 101 6.4 16.1 0.00 0.00 0.00 60 1013.2
20260508185201 15 111 6.4 16.1 0.00 0.00 0.00 60 1013.2
20260508185101 15 78 6.4 16.1 0.00 0.00 0.00 60 1013.2
20260508185001 15 69 6.4 16.1 0.00 0.00 0.00 60 1013.2
20260508184920 15 78 6.4 16.1 0.00 0.00 0.00 60 1013.2
20260508184916 15 69 6.4 16.1 0.00 0.00 0.00 60 1013.2
20260508184912 15 65 6.4 16.1 0.00 0.00 0.00 59 1013.1
20260508184649 15 57 4.8 14.5 0.00 0.00 0.00 59 1013.1
20260508184644 15 86 4.8 16.1 0.00 0.00 0.00 59 1013.1
20260508184640 15 83 4.8 16.1 0.00 0.00 0.00 59 1013.1
20260508184421 15 72 4.8 14.5 0.00 0.00 0.00 59 1013.1
20260508184417 15 66 4.8 14.5 0.00 0.00 0.00 59 1013.1
20260508184413 15 57 4.8 14.5 0.00 0.00 0.00 59 1013.1
20260508184100 15 72 4.8 16.1 0.00 0.00 0.00 59 1013.1
20260508184001 15 76 4.8 16.1 0.00 0.00 0.00 59 1013.0
20260508183901 15 99 4.8 16.1 0.00 0.00 0.00 59 1013.1
20260508183802 15 96 4.8 16.1 0.00 0.00 0.00 58 1013.1
20260508183701 15 77 4.8 16.1 0.00 0.00 0.00 58 1013.1
20260508183601 16 75 4.8 16.1 0.00 0.00 0.00 58 1013.0
20260508183501 16 91 4.8 16.1 0.00 0.00 0.00 58 1013.1
20260508183401 16 103 4.8 16.1 0.00 0.00 0.00 58 1013.1
20260508183301 16 72 4.8 16.1 0.00 0.00 0.00 58 1013.1
20260508183201 16 69 4.8 16.1 0.00 0.00 0.00 58 1013.1
20260508183101 16 65 4.8 12.9 0.00 0.00 0.00 58 1013.1
20260508183001 16 76 4.8 14.5 0.00 0.00 0.00 58 1013.1
20260508182901 16 88 4.8 14.5 0.00 0.00 0.00 58 1013.0
20260508182801 16 84 4.8 14.5 0.00 0.00 0.00 57 1013.0
20260508182701 16 80 4.8 14.5 0.00 0.00 0.00 57 1013.0
20260508182601 16 65 4.8 14.5 0.00 0.00 0.00 57 1013.0
20260508182500 16 69 6.4 14.5 0.00 0.00 0.00 57 1013.0
20260508182401 16 104 4.8 14.5 0.00 0.00 0.00 57 1013.0
20260508182300 16 76 4.8 14.5 0.00 0.00 0.00 57 1012.9
20260508182200 16 115 4.8 14.5 0.00 0.00 0.00 57 1013.0
20260508182100 16 69 4.8 14.5 0.00 0.00 0.00 57 1012.9
20260508182001 16 78 4.8 14.5 0.00 0.00 0.00 57 1012.9
20260508181900 16 79 4.8 14.5 0.00 0.00 0.00 57 1012.9
20260508181801 16 63 4.8 14.5 0.00 0.00 0.00 57 1012.9
20260508181701 16 64 4.8 14.5 0.00 0.00 0.00 57 1012.9
20260508181601 16 55 4.8 14.5 0.00 0.00 0.00 56 1012.9
20260508181501 16 42 4.8 14.5 0.00 0.00 0.00 56 1012.9
20260508181401 16 57 4.8 14.5 0.00 0.00 0.00 56 1012.8
20260508181301 16 70 4.8 14.5 0.00 0.00 0.00 56 1012.8
20260508181200 16 92 4.8 12.9 0.00 0.00 0.00 56 1012.8
20260508181101 16 92 4.8 12.9 0.00 0.00 0.00 56 1012.8
20260508181001 16 65 4.8 12.9 0.00 0.00 0.00 56 1012.8
20260508180901 16 91 4.8 12.9 0.00 0.00 0.00 56 1012.8
20260508180801 16 82 4.8 12.9 0.00 0.00 0.00 56 1012.7
20260508180701 16 78 4.8 12.9 0.00 0.00 0.00 56 1012.8
20260508180601 16 46 4.8 12.9 0.00 0.00 0.00 56 1012.8
20260508180501 16 38 4.8 12.9 0.00 0.00 0.00 56 1012.8
20260508180400 16 83 4.8 12.9 0.00 0.00 0.00 56 1012.7
20260508180301 17 86 3.2 12.9 0.00 0.00 0.00 55 1012.7
20260508180201 17 74 3.2 12.9 0.00 0.00 0.00 55 1012.7
20260508180101 17 85 3.2 12.9 0.00 0.00 0.00 55 1012.7
20260508180001 17 76 3.2 12.9 0.00 0.00 0.00 55 1012.7
20260508175901 17 93 3.2 12.9 0.00 0.00 0.00 55 1012.7
20260508175801 17 106 3.2 12.9 0.00 0.00 0.00 55 1012.7
20260508175700 17 97 3.2 12.9 0.00 0.00 0.00 55 1012.7
20260508175600 17 124 3.2 12.9 0.00 0.00 0.00 55 1012.7
20260508175500 17 77 3.2 12.9 0.00 0.00 0.00 54 1012.7
20260508175405 17 111 3.2 11.3 0.00 0.00 0.00 55 1012.7
20260508175300 17 89 3.2 12.9 0.00 0.00 0.00 54 1012.7
20260508175200 17 98 3.2 12.9 0.00 0.00 0.00 55 1012.6
20260508175101 17 84 3.2 14.5 0.00 0.00 0.00 55 1012.7
20260508175001 17 68 4.8 14.5 0.00 0.00 0.00 55 1012.7
20260508174904 17 61 4.8 14.5 0.00 0.00 0.00 54 1012.6
20260508174800 17 97 4.8 14.5 0.00 0.00 0.00 54 1012.7
20260508174700 17 98 4.8 14.5 0.00 0.00 0.00 54 1012.6
20260508174600 17 90 4.8 14.5 0.00 0.00 0.00 53 1012.6
20260508174500 17 126 4.8 14.5 0.00 0.00 0.00 54 1012.6
20260508174401 17 100 4.8 14.5 0.00 0.00 0.00 54 1012.6
20260508174303 17 85 4.8 14.5 0.00 0.00 0.00 54 1012.5
20260508174200 17 73 6.4 17.7 0.00 0.00 0.00 53 1012.5
20260508174100 17 82 6.4 17.7 0.00 0.00 0.00 53 1012.5
20260508174001 17 78 4.8 17.7 0.00 0.00 0.00 54 1012.5
20260508173901 17 92 4.8 17.7 0.00 0.00 0.00 53 1012.5
20260508173800 17 86 4.8 17.7 0.00 0.00 0.00 53 1012.5
20260508173701 17 76 4.8 17.7 0.00 0.00 0.00 54 1012.5
20260508173601 17 98 4.8 17.7 0.00 0.00 0.00 54 1012.5
20260508173501 17 97 4.8 17.7 0.00 0.00 0.00 53 1012.5
20260508173401 17 57 4.8 17.7 0.00 0.00 0.00 53 1012.5
20260508173301 17 78 4.8 17.7 0.00 0.00 0.00 54 1012.5
20260508173201 17 86 3.2 11.3 0.00 0.00 0.00 54 1012.4
20260508173101 17 96 4.8 14.5 0.00 0.00 0.00 53 1012.5
20260508173001 17 105 4.8 14.5 0.00 0.00 0.00 53 1012.5
20260508172900 17 74 4.8 14.5 0.00 0.00 0.00 53 1012.4
20260508172801 17 43 4.8 14.5 0.00 0.00 0.00 54 1012.5
20260508172701 17 92 4.8 14.5 0.00 0.00 0.00 55 1012.5
20260508172601 17 96 4.8 14.5 0.00 0.00 0.00 54 1012.4
20260508172501 17 65 4.8 14.5 0.00 0.00 0.00 53 1012.4
20260508172400 17 90 4.8 14.5 0.00 0.00 0.00 53 1012.4
20260508172300 17 111 4.8 14.5 0.00 0.00 0.00 53 1012.4
20260508172200 17 85 3.2 14.5 0.00 0.00 0.00 53 1012.4
20260508172100 17 123 3.2 11.3 0.00 0.00 0.00 53 1012.4
20260508172000 17 96 3.2 11.3 0.00 0.00 0.00 53 1012.4
20260508171923 17 50 3.2 11.3 0.00 0.00 0.00 53 1012.4
20260508171915 17 104 3.2 11.3 0.00 0.00 0.00 53 1012.4
20260508171911 17 69 3.2 11.3 0.00 0.00 0.00 53 1012.4
20260508171601 17 61 3.2 11.3 0.00 0.00 0.00 53 1012.3
20260508171501 17 71 3.2 11.3 0.00 0.00 0.00 53 1012.3
20260508171400 17 80 3.2 11.3 0.00 0.00 0.00 54 1012.4
20260508171301 17 84 3.2 11.3 0.00 0.00 0.00 53 1012.3
20260508171201 17 93 3.2 11.3 0.00 0.00 0.00 53 1012.3
20260508171101 17 69 3.2 17.7 0.00 0.00 0.00 53 1012.3
20260508171001 17 40 3.2 17.7 0.00 0.00 0.00 53 1012.3
20260508170801 17 94 4.8 17.7 0.00 0.00 0.00 52 1012.3
20260508170701 17 118 4.8 17.7 0.00 0.00 0.00 52 1012.3
20260508170600 17 100 4.8 17.7 0.00 0.00 0.00 53 1012.3
20260508170500 17 129 4.8 17.7 0.00 0.00 0.00 54 1012.3
20260508170400 17 96 4.8 17.7 0.00 0.00 0.00 54 1012.3
20260508170300 17 98 4.8 17.7 0.00 0.00 0.00 54 1012.1
20260508170201 17 114 4.8 17.7 0.00 0.00 0.00 53 1012.1
20260508170001 17 56 4.8 14.5 0.00 0.00 0.00 53 1012.1
20260508165923 17 98 4.8 14.5 0.00 0.00 0.00 53 1012.1
20260508165915 17 58 4.8 14.5 0.00 0.00 0.00 53 1012.1
20260508165911 17 102 4.8 14.5 0.00 0.00 0.00 53 1012.1
20260508165600 17 133 4.8 14.5 0.00 0.00 0.00 53 1012.1
20260508165501 17 90 4.8 14.5 0.00 0.00 0.00 54 1012.1
20260508165400 17 121 4.8 14.5 0.00 0.00 0.00 53 1012.3
20260508165300 17 74 4.8 14.5 0.00 0.00 0.00 53 1012.1
20260508165201 17 78 4.8 14.5 0.00 0.00 0.00 53 1012.1
20260508165101 17 74 4.8 14.5 0.00 0.00 0.00 53 1012.1
20260508165001 17 86 4.8 14.5 0.00 0.00 0.00 53 1012.1
20260508164901 17 89 4.8 14.5 0.00 0.00 0.00 52 1012.1
20260508164800 17 63 3.2 14.5 0.00 0.00 0.00 53 1012.1
20260508164701 17 119 3.2 14.5 0.00 0.00 0.00 53 1012.1
20260508164601 17 18 3.2 12.9 0.00 0.00 0.00 53 1012.1
20260508164501 17 126 3.2 12.9 0.00 0.00 0.00 53 1012.0
20260508164401 17 120 3.2 12.9 0.00 0.00 0.00 52 1012.0
20260508164302 17 100 3.2 12.9 0.00 0.00 0.00 52 1012.0
20260508164202 17 98 3.2 14.5 0.00 0.00 0.00 52 1012.1
20260508164100 17 96 4.8 14.5 0.00 0.00 0.00 52 1012.1
20260508164000 17 126 3.2 14.5 0.00 0.00 0.00 52 1012.1
20260508163901 17 84 3.2 14.5 0.00 0.00 0.00 52 1012.1
20260508163801 17 94 3.2 14.5 0.00 0.00 0.00 51 1012.1
20260508163701 17 74 3.2 14.5 0.00 0.00 0.00 52 1012.1
20260508163601 18 77 3.2 14.5 0.00 0.00 0.00 53 1012.1
20260508163501 17 93 4.8 14.5 0.00 0.00 0.00 52 1012.3
20260508163400 18 71 4.8 14.5 0.00 0.00 0.00 53 1012.3
20260508163300 18 63 3.2 14.5 0.00 0.00 0.00 52 1012.1
20260508163201 18 77 3.2 11.3 0.00 0.00 0.00 53 1012.1
20260508163101 18 93 3.2 11.3 0.00 0.00 0.00 52 1012.1
20260508163001 18 115 3.2 11.3 0.00 0.00 0.00 52 1012.1
20260508162901 18 87 3.2 11.3 0.00 0.00 0.00 51 1012.1
20260508162801 18 120 3.2 11.3 0.00 0.00 0.00 52 1012.1
20260508162701 18 88 3.2 11.3 0.00 0.00 0.00 51 1012.1
20260508162600 18 83 3.2 11.3 0.00 0.00 0.00 51 1012.1
20260508162500 18 89 3.2 12.9 0.00 0.00 0.00 52 1012.1
20260508162400 18 110 3.2 12.9 0.00 0.00 0.00 52 1012.1
20260508162300 18 109 3.2 12.9 0.00 0.00 0.00 52 1012.3
20260508162200 18 111 3.2 12.9 0.00 0.00 0.00 52 1012.1
20260508162101 18 102 3.2 12.9 0.00 0.00 0.00 51 1012.3
20260508162001 18 92 3.2 12.9 0.00 0.00 0.00 52 1012.3
20260508161901 18 92 3.2 12.9 0.00 0.00 0.00 52 1012.3
20260508161805 18 96 3.2 12.9 0.00 0.00 0.00 52 1012.1
20260508161700 18 93 3.2 12.9 0.00 0.00 0.00 51 1012.1
20260508161600 18 94 3.2 12.9 0.00 0.00 0.00 51 1012.1
20260508161500 18 107 3.2 11.3 0.00 0.00 0.00 52 1012.1
20260508161401 18 113 3.2 11.3 0.00 0.00 0.00 52 1012.1
20260508161301 18 113 3.2 14.5 0.00 0.00 0.00 52 1012.1
20260508161201 18 91 3.2 14.5 0.00 0.00 0.00 52 1012.1
20260508161101 18 90 3.2 14.5 0.00 0.00 0.00 51 1012.1
20260508161001 18 110 3.2 14.5 0.00 0.00 0.00 52 1012.1
20260508160901 18 73 3.2 14.5 0.00 0.00 0.00 51 1012.1
20260508160802 18 88 3.2 14.5 0.00 0.00 0.00 51 1012.1
20260508160700 18 96 3.2 14.5 0.00 0.00 0.00 52 1012.1
20260508160601 18 93 3.2 14.5 0.00 0.00 0.00 51 1012.0
20260508160500 18 90 3.2 14.5 0.00 0.00 0.00 50 1012.0
20260508160400 18 105 3.2 14.5 0.00 0.00 0.00 51 1012.0
20260508160301 18 82 3.2 14.5 0.00 0.00 0.00 51 1012.1
20260508160200 18 98 3.2 14.5 0.00 0.00 0.00 51 1012.1
20260508160001 18 91 4.8 14.5 0.00 0.00 0.00 51 1012.1
20260508155923 18 98 3.2 14.5 0.00 0.00 0.00 50 1012.1
20260508155915 18 80 4.8 14.5 0.00 0.00 0.00 52 1012.1
20260508155903 18 67 4.8 14.5 0.00 0.00 0.00 50 1012.1
20260508155643 18 109 4.8 14.5 0.00 0.00 0.00 52 1012.1
20260508155424 18 78 4.8 14.5 0.00 0.00 0.00 50 1012.0
20260508155420 18 88 4.8 14.5 0.00 0.00 0.00 51 1012.0
20260508155412 18 98 3.2 14.5 0.00 0.00 0.00 50 1012.1
20260508155101 18 83 3.2 14.5 0.00 0.00 0.00 49 1012.1
20260508155001 18 92 3.2 14.5 0.00 0.00 0.00 50 1012.1
20260508154900 18 112 3.2 14.5 0.00 0.00 0.00 51 1012.0
20260508154800 18 110 3.2 11.3 0.00 0.00 0.00 50 1012.1
20260508154700 18 113 3.2 8.0 0.00 0.00 0.00 50 1012.1
20260508154600 18 92 3.2 11.3 0.00 0.00 0.00 50 1012.1
20260508154500 18 75 3.2 11.3 0.00 0.00 0.00 50 1012.1
20260508154401 18 88 3.2 11.3 0.00 0.00 0.00 50 1012.1
20260508154301 18 46 3.2 11.3 0.00 0.00 0.00 50 1012.1
20260508154201 19 102 3.2 11.3 0.00 0.00 0.00 51 1012.1
20260508154153 19 71 4.8 11.3 0.00 0.00 0.00 49 1012.1
20260508154146 19 93 4.8 11.3 0.00 0.00 0.00 51 1012.1
20260508154142 19 109 4.8 11.3 0.00 0.00 0.00 49 1012.1
20260508153925 19 92 4.8 11.3 0.00 0.00 0.00 49 1012.1
20260508153921 19 100 4.8 11.3 0.00 0.00 0.00 49 1012.1
20260508153913 19 71 4.8 11.3 0.00 0.00 0.00 49 1012.1
20260508153600 19 89 4.8 9.7 0.00 0.00 0.00 48 1012.1
20260508153500 19 80 4.8 9.7 0.00 0.00 0.00 49 1012.1
20260508153400 19 83 4.8 9.7 0.00 0.00 0.00 50 1012.1
20260508153300 19 63 3.2 9.7 0.00 0.00 0.00 49 1012.1
20260508153201 19 114 4.8 9.7 0.00 0.00 0.00 49 1012.1
20260508153101 19 71 4.8 9.7 0.00 0.00 0.00 49 1012.1
20260508153001 19 47 4.8 12.9 0.00 0.00 0.00 49 1012.3
20260508152901 19 65 4.8 12.9 0.00 0.00 0.00 48 1012.3
20260508152801 19 101 4.8 12.9 0.00 0.00 0.00 49 1012.3
20260508152701 19 85 4.8 12.9 0.00 0.00 0.00 49 1012.3
20260508152601 19 95 4.8 12.9 0.00 0.00 0.00 49 1012.3
20260508152501 19 99 4.8 12.9 0.00 0.00 0.00 49 1012.3
20260508152400 19 130 4.8 12.9 0.00 0.00 0.00 49 1012.3
20260508152300 19 59 4.8 12.9 0.00 0.00 0.00 49 1012.3
20260508152201 19 97 4.8 12.9 0.00 0.00 0.00 49 1012.3
20260508152101 19 102 4.8 12.9 0.00 0.00 0.00 49 1012.3
20260508152001 19 355 4.8 9.7 0.00 0.00 0.00 49 1012.3
20260508151901 19 329 4.8 9.7 0.00 0.00 0.00 50 1012.4
20260508151800 19 50 4.8 9.7 0.00 0.00 0.00 50 1012.4
20260508151700 19 29 4.8 11.3 0.00 0.00 0.00 50 1012.4
20260508151600 19 5 4.8 12.9 0.00 0.00 0.00 49 1012.4
20260508151500 19 49 4.8 12.9 0.00 0.00 0.00 49 1012.4
20260508151400 19 16 4.8 12.9 0.00 0.00 0.00 50 1012.4
20260508151300 19 331 4.8 12.9 0.00 0.00 0.00 50 1012.5
20260508151201 19 24 4.8 12.9 0.00 0.00 0.00 52 1012.4
20260508151101 19 46 6.4 19.3 0.00 0.00 0.00 51 1012.5
20260508151001 19 47 6.4 19.3 0.00 0.00 0.00 51 1012.5
20260508150901 18 37 6.4 19.3 0.00 0.00 0.00 52 1012.5
20260508150801 18 5 6.4 19.3 0.00 0.00 0.00 51 1012.5
20260508150700 18 59 6.4 19.3 0.00 0.00 0.00 51 1012.5
20260508150601 18 91 6.4 19.3 0.00 0.00 0.00 52 1012.5
20260508150500 18 108 6.4 19.3 0.00 0.00 0.00 52 1012.5
20260508150401 18 76 6.4 19.3 0.00 0.00 0.00 52 1012.6
20260508150300 18 69 4.8 19.3 0.00 0.00 0.00 52 1012.6
20260508150201 18 145 4.8 19.3 0.00 0.00 0.00 53 1012.5
20260508150101 18 78 4.8 14.5 0.00 0.00 0.00 53 1012.5
20260508150001 18 31 3.2 14.5 0.00 0.00 0.00 53 1012.5
20260508145900 18 90 3.2 14.5 0.00 0.00 0.00 53 1012.6
20260508145800 18 87 3.2 14.5 0.00 0.00 0.00 52 1012.6
20260508145701 18 61 3.2 11.3 0.00 0.00 0.00 50 1012.6
20260508145600 18 117 3.2 14.5 0.00 0.00 0.00 50 1012.6
20260508145500 18 103 3.2 14.5 0.00 0.00 0.00 50 1012.6
20260508145425 18 110 3.2 14.5 0.00 0.00 0.00 50 1012.6
20260508145421 18 111 3.2 16.1 0.00 0.00 0.00 51 1012.6
20260508145411 18 109 4.8 16.1 0.00 0.00 0.00 50 1012.6
20260508145100 19 109 4.8 16.1 0.00 0.00 0.00 50 1012.6
20260508145001 19 112 4.8 16.1 0.00 0.00 0.00 49 1012.6
20260508144901 19 109 4.8 16.1 0.00 0.00 0.00 49 1012.6
20260508144801 19 93 4.8 16.1 0.00 0.00 0.00 49 1012.6
20260508144700 19 95 4.8 16.1 0.00 0.00 0.00 49 1012.6
20260508144601 19 59 4.8 16.1 0.00 0.00 0.00 49 1012.6
20260508144501 19 77 4.8 16.1 0.00 0.00 0.00 50 1012.6
20260508144401 19 88 3.2 16.1 0.00 0.00 0.00 49 1012.6
20260508144302 19 84 3.2 11.3 0.00 0.00 0.00 49 1012.6
20260508144201 20 73 3.2 11.3 0.00 0.00 0.00 49 1012.6
20260508144100 20 73 3.2 11.3 0.00 0.00 0.00 48 1012.6
20260508144000 20 72 3.2 11.3 0.00 0.00 0.00 48 1012.6
20260508143900 20 58 4.8 11.3 0.00 0.00 0.00 51 1012.6
20260508143801 20 37 4.8 11.3 0.00 0.00 0.00 49 1012.6
20260508143700 20 30 4.8 11.3 0.00 0.00 0.00 51 1012.6
20260508143601 20 70 3.2 11.3 0.00 0.00 0.00 50 1012.6
20260508143500 20 82 3.2 11.3 0.00 0.00 0.00 50 1012.6
20260508143400 20 78 3.2 11.3 0.00 0.00 0.00 49 1012.6
20260508143301 20 73 3.2 11.3 0.00 0.00 0.00 48 1012.6
20260508143200 20 54 3.2 11.3 0.00 0.00 0.00 49 1012.6
20260508143101 20 11 3.2 11.3 0.00 0.00 0.00 51 1012.7
20260508143001 20 63 3.2 11.3 0.00 0.00 0.00 50 1012.7
20260508142901 20 57 3.2 11.3 0.00 0.00 0.00 49 1012.7
20260508142801 20 37 3.2 11.3 0.00 0.00 0.00 49 1012.7
20260508142700 20 120 3.2 11.3 0.00 0.00 0.00 49 1012.7
20260508142601 19 129 3.2 11.3 0.00 0.00 0.00 50 1012.7
20260508142500 19 78 3.2 11.3 0.00 0.00 0.00 50 1012.7
20260508142400 19 77 3.2 11.3 0.00 0.00 0.00 51 1012.7
20260508142300 19 69 3.2 11.3 0.00 0.00 0.00 50 1012.6
20260508142205 19 74 3.2 9.7 0.00 0.00 0.00 50 1012.7
20260508142100 19 65 3.2 9.7 0.00 0.00 0.00 50 1012.7
20260508142000 19 79 3.2 9.7 0.00 0.00 0.00 49 1012.7
20260508141900 19 98 3.2 9.7 0.00 0.00 0.00 49 1012.6
20260508141800 19 98 3.2 9.7 0.00 0.00 0.00 49 1012.7
20260508141703 19 99 3.2 9.7 0.00 0.00 0.00 50 1012.7
20260508141601 19 94 3.2 9.7 0.00 0.00 0.00 51 1012.7
20260508141501 19 57 3.2 8.0 0.00 0.00 0.00 50 1012.7
20260508141401 19 128 3.2 8.0 0.00 0.00 0.00 49 1012.7
20260508141300 19 103 3.2 9.7 0.00 0.00 0.00 49 1012.7
20260508141201 19 103 3.2 9.7 0.00 0.00 0.00 50 1012.7
20260508141100 19 83 3.2 11.3 0.00 0.00 0.00 51 1012.7
20260508141000 19 59 3.2 16.1 0.00 0.00 0.00 54 1012.7
20260508140901 19 42 3.2 16.1 0.00 0.00 0.00 52 1012.7
20260508140801 18 68 3.2 16.1 0.00 0.00 0.00 52 1012.8
20260508140700 18 68 3.2 16.1 0.00 0.00 0.00 52 1012.7
20260508140601 18 78 3.2 16.1 0.00 0.00 0.00 53 1012.8
20260508140501 18 78 3.2 16.1 0.00 0.00 0.00 52 1012.8
20260508140421 18 80 4.8 16.1 0.00 0.00 0.00 51 1012.8
20260508140417 18 108 3.2 16.1 0.00 0.00 0.00 50 1012.8
20260508140413 18 98 3.2 16.1 0.00 0.00 0.00 51 1012.8
20260508140101 18 84 3.2 16.1 0.00 0.00 0.00 51 1012.9
20260508140001 19 84 3.2 11.3 0.00 0.00 0.00 51 1012.9
20260508135900 19 90 4.8 11.3 0.00 0.00 0.00 50 1012.9
20260508135800 19 64 4.8 11.3 0.00 0.00 0.00 52 1012.9
20260508135700 19 56 4.8 11.3 0.00 0.00 0.00 53 1012.9
20260508135601 19 51 4.8 11.3 0.00 0.00 0.00 52 1012.9
20260508135501 18 81 4.8 12.9 0.00 0.00 0.00 51 1012.9
20260508135400 19 112 4.8 12.9 0.00 0.00 0.00 50 1012.9
20260508135300 19 72 4.8 12.9 0.00 0.00 0.00 51 1012.9
20260508135200 19 71 4.8 12.9 0.00 0.00 0.00 51 1012.9
20260508135100 19 111 4.8 12.9 0.00 0.00 0.00 51 1012.9
20260508135000 19 74 6.4 14.5 0.00 0.00 0.00 51 1012.9
20260508134900 19 107 6.4 14.5 0.00 0.00 0.00 51 1012.9
20260508134800 19 90 6.4 16.1 0.00 0.00 0.00 51 1012.9
20260508134700 19 52 6.4 16.1 0.00 0.00 0.00 52 1012.9
20260508134601 19 5 6.4 16.1 0.00 0.00 0.00 51 1013.0
20260508134500 19 49 6.4 16.1 0.00 0.00 0.00 51 1013.0
20260508134401 19 59 4.8 16.1 0.00 0.00 0.00 52 1013.0
20260508134300 19 44 4.8 16.1 0.00 0.00 0.00 50 1013.0
20260508134201 19 75 4.8 16.1 0.00 0.00 0.00 50 1013.0
20260508134102 19 91 4.8 16.1 0.00 0.00 0.00 51 1013.0
20260508134001 19 94 4.8 16.1 0.00 0.00 0.00 52 1013.0
20260508133901 19 77 4.8 16.1 0.00 0.00 0.00 52 1013.0
20260508133801 19 69 4.8 16.1 0.00 0.00 0.00 51 1013.0
20260508133701 19 187 4.8 16.1 0.00 0.00 0.00 52 1013.0
20260508133601 18 57 3.2 16.1 0.00 0.00 0.00 53 1013.0
20260508133501 18 48 3.2 11.3 0.00 0.00 0.00 53 1013.0
20260508133401 18 323 3.2 11.3 0.00 0.00 0.00 51 1013.0
20260508133301 18 115 3.2 11.3 0.00 0.00 0.00 51 1013.0
20260508133201 18 118 3.2 11.3 0.00 0.00 0.00 51 1012.9
20260508133100 18 142 3.2 9.7 0.00 0.00 0.00 50 1013.0
20260508133000 18 117 3.2 9.7 0.00 0.00 0.00 51 1013.1
20260508132901 18 86 3.2 9.7 0.00 0.00 0.00 49 1013.1
20260508132801 18 86 3.2 9.7 0.00 0.00 0.00 51 1013.0
20260508132701 18 94 3.2 9.7 0.00 0.00 0.00 51 1013.1
20260508132601 18 92 3.2 9.7 0.00 0.00 0.00 50 1013.0
20260508132501 18 100 3.2 9.7 0.00 0.00 0.00 50 1013.1
20260508132401 18 98 1.6 9.7 0.00 0.00 0.00 52 1013.0
20260508132300 18 92 1.6 9.7 0.00 0.00 0.00 50 1013.0
20260508132200 18 112 1.6 9.7 0.00 0.00 0.00 52 1013.0
20260508132100 18 112 3.2 9.7 0.00 0.00 0.00 53 1013.1
20260508132000 18 117 1.6 9.7 0.00 0.00 0.00 51 1013.0
20260508131859 18 105 3.2 9.7 0.00 0.00 0.00 52 1013.0
20260508131754 18 133 3.2 11.3 0.00 0.00 0.00 52 1013.1
20260508131701 18 56 3.2 12.9 0.00 0.00 0.00 51 1013.1
20260508131652 18 56 3.2 12.9 0.00 0.00 0.00 51 1013.1
20260508131552 18 55 3.2 12.9 0.00 0.00 0.00 51 1013.1
20260508131452 18 76 3.2 12.9 0.00 0.00 0.00 51 1013.1
20260508131351 18 76 4.8 12.9 0.00 0.00 0.00 52 1013.1
20260508131246 18 67 4.8 12.9 0.00 0.00 0.00 52 1013.1
20260508131201 19 93 4.8 12.9 0.00 0.00 0.00 53 1013.1
20260508131146 19 97 4.8 12.9 0.00 0.00 0.00 52 1013.1
20260508131047 19 82 6.4 12.9 0.00 0.00 0.00 53 1013.1
20260508130946 19 119 6.4 16.1 0.00 0.00 0.00 52 1013.1
20260508130926 19 117 6.4 17.7 0.00 0.00 0.00 51 1013.1
20260508130916 19 93 6.4 17.7 0.00 0.00 0.00 52 1013.1
20260508130912 19 55 6.4 17.7 0.00 0.00 0.00 52 1013.1
20260508130642 19 57 6.4 17.7 0.00 0.00 0.00 50 1013.1
20260508130541 19 76 6.4 17.7 0.00 0.00 0.00 51 1013.2
20260508130440 19 53 6.4 17.7 0.00 0.00 0.00 52 1013.2
20260508130339 19 75 6.4 17.7 0.00 0.00 0.00 52 1013.2
20260508130236 19 30 6.4 17.7 0.00 0.00 0.00 53 1013.2
20260508130200 19 50 6.4 17.7 0.00 0.00 0.00 53 1013.2
20260508130136 19 90 6.4 17.7 0.00 0.00 0.00 53 1013.2
20260508130036 19 60 6.4 17.7 0.00 0.00 0.00 53 1013.2
20260508125936 19 51 6.4 17.7 0.00 0.00 0.00 54 1013.2
20260508125929 18 17 4.8 17.7 0.00 0.00 0.00 56 1013.3
20260508125916 18 78 6.4 17.7 0.00 0.00 0.00 55 1013.3
20260508125912 18 14 4.8 17.7 0.00 0.00 0.00 54 1013.3
20260508125635 18 49 4.8 17.7 0.00 0.00 0.00 56 1013.3
20260508125535 18 46 4.8 16.1 0.00 0.00 0.00 55 1013.3
20260508125434 18 12 4.8 14.5 0.00 0.00 0.00 55 1013.3
20260508125334 18 66 4.8 16.1 0.00 0.00 0.00 54 1013.3
20260508125234 18 119 6.4 17.7 0.00 0.00 0.00 55 1013.3
20260508125200 18 12 6.4 19.3 0.00 0.00 0.00 56 1013.3
20260508125132 18 34 4.8 19.3 0.00 0.00 0.00 56 1013.3
20260508125030 18 321 4.8 19.3 0.00 0.00 0.00 56 1013.3
20260508124831 18 76 4.8 19.3 0.00 0.00 0.00 55 1013.4
20260508124702 18 38 4.8 19.3 0.00 0.00 0.00 55 1013.4
20260508124629 18 335 4.8 19.3 0.00 0.00 0.00 55 1013.4
20260508124529 18 69 4.8 19.3 0.00 0.00 0.00 55 1013.4
20260508124429 17 88 4.8 19.3 0.00 0.00 0.00 55 1013.4
20260508124329 17 5 3.2 19.3 0.00 0.00 0.00 56 1013.4
20260508124229 17 78 3.2 19.3 0.00 0.00 0.00 55 1013.4
20260508124201 17 66 3.2 16.1 0.00 0.00 0.00 55 1013.4
20260508124129 18 86 3.2 8.0 0.00 0.00 0.00 55 1013.4
20260508124029 18 86 3.2 8.0 0.00 0.00 0.00 53 1013.5
20260508123929 18 107 3.2 9.7 0.00 0.00 0.00 53 1013.4
20260508123829 18 98 3.2 9.7 0.00 0.00 0.00 53 1013.4
20260508123729 18 88 3.2 11.3 0.00 0.00 0.00 54 1013.4
20260508123701 18 90 3.2 11.3 0.00 0.00 0.00 54 1013.4
20260508123629 18 36 4.8 12.9 0.00 0.00 0.00 56 1013.4
20260508123529 18 72 4.8 14.5 0.00 0.00 0.00 55 1013.4
20260508123429 18 80 4.8 14.5 0.00 0.00 0.00 53 1013.4
20260508123329 18 115 4.8 14.5 0.00 0.00 0.00 53 1013.4
20260508123229 18 171 4.8 14.5 0.00 0.00 0.00 53 1013.4
20260508123201 18 172 4.8 14.5 0.00 0.00 0.00 53 1013.4
20260508123128 18 133 4.8 14.5 0.00 0.00 0.00 54 1013.4
20260508123029 18 99 4.8 14.5 0.00 0.00 0.00 54 1013.4
20260508122929 18 105 4.8 14.5 0.00 0.00 0.00 53 1013.4
20260508122828 18 105 4.8 14.5 0.00 0.00 0.00 55 1013.4
20260508122728 18 91 4.8 14.5 0.00 0.00 0.00 56 1013.3
20260508122701 18 92 4.8 14.5 0.00 0.00 0.00 56 1013.3
20260508122628 18 355 3.2 14.5 0.00 0.00 0.00 57 1013.4
20260508122529 17 328 3.2 14.5 0.00 0.00 0.00 55 1013.4
20260508122429 17 348 3.2 14.5 0.00 0.00 0.00 55 1013.4
20260508122329 17 348 4.8 14.5 0.00 0.00 0.00 57 1013.4
20260508122228 17 348 3.2 14.5 0.00 0.00 0.00 58 1013.5
20260508122200 17 5 3.2 14.5 0.00 0.00 0.00 58 1013.5
20260508122128 17 34 3.2 14.5 0.00 0.00 0.00 56 1013.4
20260508122026 17 32 3.2 14.5 0.00 0.00 0.00 54 1013.5
20260508121927 17 46 3.2 8.0 0.00 0.00 0.00 54 1013.5
20260508121922 17 16 3.2 12.9 0.00 0.00 0.00 54 1013.5
20260508121917 17 310 3.2 8.0 0.00 0.00 0.00 56 1013.5
20260508121913 17 16 3.2 8.0 0.00 0.00 0.00 55 1013.5
20260508121618 17 88 3.2 12.9 0.00 0.00 0.00 55 1013.5
20260508121518 17 100 3.2 12.9 0.00 0.00 0.00 54 1013.5
20260508121417 17 96 3.2 12.9 0.00 0.00 0.00 53 1013.5
20260508121312 17 69 3.2 12.9 0.00 0.00 0.00 54 1013.5
20260508121201 17 105 3.2 12.9 0.00 0.00 0.00 54 1013.5
20260508121113 17 113 3.2 12.9 0.00 0.00 0.00 55 1013.5
20260508121012 17 100 3.2 12.9 0.00 0.00 0.00 56 1013.5
20260508120923 17 57 3.2 12.9 0.00 0.00 0.00 58 1013.5
20260508120919 17 94 3.2 12.9 0.00 0.00 0.00 55 1013.4
20260508120915 17 104 3.2 12.9 0.00 0.00 0.00 56 1013.4
20260508120911 17 109 3.2 12.9 0.00 0.00 0.00 58 1013.5
20260508120606 17 105 3.2 12.9 0.00 0.00 0.00 57 1013.4
20260508120506 17 64 3.2 12.9 0.00 0.00 0.00 56 1013.4
20260508120405 17 94 3.2 12.9 0.00 0.00 0.00 57 1013.5
20260508120304 17 67 3.2 12.9 0.00 0.00 0.00 58 1013.4
20260508120201 17 246 3.2 12.9 0.00 0.00 0.00 57 1013.4
20260508120002 17 247 3.2 16.1 0.00 0.00 0.00 57 1013.5
20260508115902 17 110 3.2 16.1 0.00 0.00 0.00 56 1013.5
20260508115802 17 99 3.2 16.1 0.00 0.00 0.00 58 1013.5
20260508115701 17 110 3.2 16.1 0.00 0.00 0.00 57 1013.4
20260508115602 17 78 3.2 16.1 0.00 0.00 0.00 56 1013.5
20260508115502 17 63 3.2 16.1 0.00 0.00 0.00 58 1013.4
20260508115402 17 111 3.2 16.1 0.00 0.00 0.00 57 1013.5
20260508115306 17 96 3.2 16.1 0.00 0.00 0.00 57 1013.4
20260508115201 17 107 3.2 16.1 0.00 0.00 0.00 58 1013.5
20260508115102 17 78 3.2 12.9 0.00 0.00 0.00 57 1013.4
20260508115002 17 342 3.2 12.9 0.00 0.00 0.00 58 1013.4
20260508114921 17 93 3.2 12.9 0.00 0.00 0.00 59 1013.4
20260508114917 17 89 4.8 12.9 0.00 0.00 0.00 60 1013.4
20260508114913 17 107 3.2 12.9 0.00 0.00 0.00 60 1013.4
20260508114600 17 91 3.2 11.3 0.00 0.00 0.00 58 1013.4
20260508114500 17 73 4.8 12.9 0.00 0.00 0.00 59 1013.4
20260508114400 17 91 3.2 12.9 0.00 0.00 0.00 57 1013.4
20260508114300 17 109 3.2 12.9 0.00 0.00 0.00 59 1013.4
20260508114204 17 107 3.2 12.9 0.00 0.00 0.00 62 1013.4
20260508114159 17 107 3.2 12.9 0.00 0.00 0.00 62 1013.4
20260508114056 17 81 3.2 12.9 0.00 0.00 0.00 61 1013.4
20260508113956 17 54 3.2 12.9 0.00 0.00 0.00 60 1013.4
20260508113856 16 54 3.2 12.9 0.00 0.00 0.00 59 1013.5
20260508113756 16 130 3.2 12.9 0.00 0.00 0.00 61 1013.5
20260508113701 16 78 3.2 12.9 0.00 0.00 0.00 60 1013.5
20260508113654 16 117 3.2 12.9 0.00 0.00 0.00 60 1013.4
20260508113550 16 78 3.2 12.9 0.00 0.00 0.00 60 1013.5
20260508113448 16 119 4.8 12.9 0.00 0.00 0.00 60 1013.4
20260508113348 16 101 4.8 12.9 0.00 0.00 0.00 59 1013.5
20260508113248 16 90 4.8 12.9 0.00 0.00 0.00 61 1013.5
20260508113201 16 104 4.8 12.9 0.00 0.00 0.00 61 1013.5
20260508113148 16 77 4.8 12.9 0.00 0.00 0.00 61 1013.5
20260508113044 16 156 4.8 12.9 0.00 0.00 0.00 60 1013.5
20260508112944 16 146 4.8 12.9 0.00 0.00 0.00 60 1013.5
20260508112844 16 96 4.8 12.9 0.00 0.00 0.00 60 1013.5
20260508112744 16 96 6.4 12.9 0.00 0.00 0.00 59 1013.5
20260508112702 16 111 6.4 12.9 0.00 0.00 0.00 59 1013.5
20260508112642 16 72 4.8 12.9 0.00 0.00 0.00 60 1013.6
20260508112538 16 105 4.8 14.5 0.00 0.00 0.00 60 1013.5
20260508112438 16 79 4.8 14.5 0.00 0.00 0.00 60 1013.5
20260508112338 17 114 4.8 14.5 0.00 0.00 0.00 60 1013.6
20260508112238 17 91 6.4 14.5 0.00 0.00 0.00 60 1013.6
20260508112201 17 124 6.4 19.3 0.00 0.00 0.00 60 1013.6
20260508112135 17 90 6.4 19.3 0.00 0.00 0.00 60 1013.6
20260508112034 16 56 4.8 19.3 0.00 0.00 0.00 59 1013.6
20260508111929 16 65 4.8 19.3 0.00 0.00 0.00 60 1013.6
20260508111829 16 69 4.8 19.3 0.00 0.00 0.00 60 1013.6
20260508111729 16 57 4.8 19.3 0.00 0.00 0.00 62 1013.6
20260508111701 16 96 4.8 19.3 0.00 0.00 0.00 62 1013.6
20260508111630 16 82 4.8 19.3 0.00 0.00 0.00 60 1013.6
20260508111524 16 103 4.8 19.3 0.00 0.00 0.00 60 1013.6
20260508111430 16 141 3.2 11.3 0.00 0.00 0.00 61 1013.6
20260508111424 16 109 4.8 19.3 0.00 0.00 0.00 60 1013.6
20260508111416 16 125 3.2 19.3 0.00 0.00 0.00 61 1013.6
20260508111412 16 82 3.2 19.3 0.00 0.00 0.00 60 1013.6
20260508111123 16 151 3.2 11.3 0.00 0.00 0.00 61 1013.7
20260508111024 16 96 3.2 8.0 0.00 0.00 0.00 59 1013.7
20260508110930 16 73 3.2 11.3 0.00 0.00 0.00 63 1013.7
20260508110922 16 59 3.2 11.3 0.00 0.00 0.00 60 1013.7
20260508110917 16 97 3.2 11.3 0.00 0.00 0.00 62 1013.7
20260508110913 16 80 3.2 11.3 0.00 0.00 0.00 62 1013.7
20260508110617 16 76 3.2 11.3 0.00 0.00 0.00 62 1013.7
20260508110512 16 149 3.2 11.3 0.00 0.00 0.00 61 1013.7
20260508110412 16 103 3.2 11.3 0.00 0.00 0.00 60 1013.8
20260508110312 16 88 3.2 11.3 0.00 0.00 0.00 61 1013.8
20260508110200 16 67 3.2 11.3 0.00 0.00 0.00 62 1013.7
20260508110111 16 86 3.2 11.3 0.00 0.00 0.00 63 1013.7
20260508110007 16 69 3.2 11.3 0.00 0.00 0.00 62 1013.7
20260508105905 16 97 3.2 11.3 0.00 0.00 0.00 61 1013.7
20260508105806 16 49 3.2 11.3 0.00 0.00 0.00 62 1013.7
20260508105706 16 92 3.2 11.3 0.00 0.00 0.00 60 1013.7
20260508105701 16 105 3.2 11.3 0.00 0.00 0.00 60 1013.7
20260508105606 16 90 3.2 11.3 0.00 0.00 0.00 61 1013.8
20260508105506 16 113 3.2 11.3 0.00 0.00 0.00 63 1013.8
20260508105306 16 82 3.2 17.7 0.00 0.00 0.00 64 1013.7
20260508105201 16 90 3.2 17.7 0.00 0.00 0.00 65 1013.8
20260508105102 16 101 3.2 17.7 0.00 0.00 0.00 64 1013.7
20260508105004 16 105 3.2 17.7 0.00 0.00 0.00 63 1013.8
20260508104921 16 105 4.8 17.7 0.00 0.00 0.00 63 1013.8
20260508104917 16 98 3.2 17.7 0.00 0.00 0.00 65 1013.8
20260508104913 16 79 3.2 17.7 0.00 0.00 0.00 64 1013.8
20260508104604 16 81 3.2 17.7 0.00 0.00 0.00 62 1013.8
20260508104501 16 86 3.2 17.7 0.00 0.00 0.00 62 1013.8
20260508104401 16 103 3.2 14.5 0.00 0.00 0.00 63 1013.8
20260508104301 16 84 3.2 14.5 0.00 0.00 0.00 64 1013.8
20260508104201 16 112 4.8 14.5 0.00 0.00 0.00 63 1013.8
20260508104101 16 83 4.8 14.5 0.00 0.00 0.00 63 1013.8
20260508104001 16 77 4.8 14.5 0.00 0.00 0.00 63 1013.9
20260508103901 16 96 4.8 14.5 0.00 0.00 0.00 64 1013.8
20260508103801 16 55 4.8 14.5 0.00 0.00 0.00 63 1013.9
20260508103700 16 115 4.8 14.5 0.00 0.00 0.00 63 1013.9
20260508103600 16 78 4.8 14.5 0.00 0.00 0.00 63 1013.9
20260508103501 16 121 3.2 14.5 0.00 0.00 0.00 64 1013.9
20260508103401 16 104 3.2 14.5 0.00 0.00 0.00 64 1013.9
20260508103300 16 30 3.2 14.5 0.00 0.00 0.00 64 1013.9
20260508103200 16 69 3.2 14.5 0.00 0.00 0.00 64 1013.9
20260508103101 16 110 3.2 14.5 0.00 0.00 0.00 66 1013.9
20260508103001 16 140 3.2 12.9 0.00 0.00 0.00 65 1013.9
20260508102901 16 81 3.2 12.9 0.00 0.00 0.00 65 1013.9
20260508102801 16 91 3.2 12.9 0.00 0.00 0.00 66 1013.9
20260508102700 16 115 4.8 19.3 0.00 0.00 0.00 66 1013.9
20260508102600 16 98 4.8 19.3 0.00 0.00 0.00 64 1013.9
20260508102501 15 94 4.8 19.3 0.00 0.00 0.00 65 1013.9
20260508102401 15 75 4.8 19.3 0.00 0.00 0.00 64 1013.9
20260508102301 15 138 4.8 19.3 0.00 0.00 0.00 67 1013.9
20260508102200 15 109 4.8 19.3 0.00 0.00 0.00 65 1013.9
20260508102100 15 91 6.4 19.3 0.00 0.00 0.00 65 1014.1
20260508102002 15 76 6.4 19.3 0.00 0.00 0.00 64 1014.1
20260508101902 15 132 4.8 19.3 0.00 0.00 0.00 65 1013.9
20260508101801 15 101 4.8 19.3 0.00 0.00 0.00 64 1014.1
20260508101701 15 70 4.8 17.7 0.00 0.00 0.00 65 1014.1
20260508101601 15 144 4.8 14.5 0.00 0.00 0.00 66 1014.1
20260508101501 15 92 4.8 14.5 0.00 0.00 0.00 66 1014.1
20260508101401 15 108 4.8 14.5 0.00 0.00 0.00 68 1014.1
20260508101301 15 119 3.2 14.5 0.00 0.00 0.00 68 1014.2
20260508101202 15 91 3.2 14.5 0.00 0.00 0.00 69 1014.1
20260508101101 15 110 3.2 14.5 0.00 0.00 0.00 68 1014.2
20260508101001 15 86 3.2 14.5 0.00 0.00 0.00 68 1014.2
20260508100901 15 101 3.2 14.5 0.00 0.00 0.00 67 1014.2
20260508100801 15 108 3.2 14.5 0.00 0.00 0.00 67 1014.2
20260508100701 15 93 3.2 14.5 0.00 0.00 0.00 67 1014.2
20260508100601 15 79 1.6 8.0 0.00 0.00 0.00 69 1014.2
20260508100507 15 103 1.6 6.4 0.00 0.00 0.00 69 1014.2
20260508100401 15 134 1.6 6.4 0.00 0.00 0.00 69 1014.2
20260508100300 14 97 1.6 6.4 0.00 0.00 0.00 68 1014.2
20260508100200 14 110 3.2 6.4 0.00 0.00 0.00 70 1014.2
20260508100100 14 114 3.2 14.5 0.00 0.00 0.00 69 1014.2
20260508100007 14 105 3.2 14.5 0.00 0.00 0.00 69 1014.3
20260508095900 14 92 3.2 14.5 0.00 0.00 0.00 68 1014.2
20260508095800 14 98 3.2 14.5 0.00 0.00 0.00 68 1014.3
20260508095701 14 98 4.8 14.5 0.00 0.00 0.00 68 1014.3
20260508095601 14 98 4.8 14.5 0.00 0.00 0.00 68 1014.3
20260508095501 14 109 4.8 14.5 0.00 0.00 0.00 70 1014.3
20260508095401 14 77 4.8 14.5 0.00 0.00 0.00 69 1014.3
20260508095301 14 77 4.8 14.5 0.00 0.00 0.00 69 1014.3
20260508095200 14 105 4.8 14.5 0.00 0.00 0.00 69 1014.3
20260508095101 14 38 4.8 14.5 0.00 0.00 0.00 69 1014.4
20260508095001 14 108 4.8 12.9 0.00 0.00 0.00 68 1014.3
20260508094901 14 77 4.8 12.9 0.00 0.00 0.00 69 1014.3
20260508094801 14 76 4.8 12.9 0.00 0.00 0.00 69 1014.3
20260508094701 14 74 3.2 12.9 0.00 0.00 0.00 70 1014.3
20260508094601 14 76 3.2 12.9 0.00 0.00 0.00 70 1014.3
20260508094501 14 136 3.2 12.9 0.00 0.00 0.00 70 1014.2
20260508094401 14 67 3.2 12.9 0.00 0.00 0.00 70 1014.3
20260508094301 14 42 3.2 11.3 0.00 0.00 0.00 69 1014.3
20260508094201 14 127 3.2 12.9 0.00 0.00 0.00 69 1014.3
20260508094101 14 84 3.2 12.9 0.00 0.00 0.00 69 1014.3
20260508094001 14 53 3.2 12.9 0.00 0.00 0.00 69 1014.3
20260508093902 14 94 3.2 12.9 0.00 0.00 0.00 68 1014.2
20260508093801 14 87 3.2 12.9 0.00 0.00 0.00 70 1014.3
20260508093701 14 107 3.2 12.9 0.00 0.00 0.00 69 1014.3
20260508093601 14 67 3.2 12.9 0.00 0.00 0.00 70 1014.3
20260508093501 14 72 3.2 12.9 0.00 0.00 0.00 71 1014.3
20260508093401 14 100 3.2 12.9 0.00 0.00 0.00 70 1014.3
20260508093300 14 47 3.2 12.9 0.00 0.00 0.00 70 1014.3
20260508093200 14 197 3.2 12.9 0.00 0.00 0.00 71 1014.3
20260508093100 14 85 3.2 12.9 0.00 0.00 0.00 72 1014.3
20260508093000 13 122 3.2 12.9 0.00 0.00 0.00 72 1014.3
20260508092901 13 123 3.2 12.9 0.00 0.00 0.00 72 1014.3
20260508092801 13 124 3.2 12.9 0.00 0.00 0.00 71 1014.3
20260508092701 13 119 3.2 12.9 0.00 0.00 0.00 69 1014.3
20260508092600 13 134 4.8 12.9 0.00 0.00 0.00 70 1014.3
20260508092500 13 127 4.8 14.5 0.00 0.00 0.00 69 1014.3
20260508092401 13 126 4.8 14.5 0.00 0.00 0.00 70 1014.3
20260508092301 13 46 4.8 14.5 0.00 0.00 0.00 70 1014.3
20260508092201 13 109 3.2 14.5 0.00 0.00 0.00 72 1014.3
20260508092101 13 68 3.2 14.5 0.00 0.00 0.00 72 1014.2
20260508092001 13 53 3.2 14.5 0.00 0.00 0.00 73 1014.2
20260508091901 13 61 3.2 14.5 0.00 0.00 0.00 71 1014.2
20260508091801 13 80 3.2 14.5 0.00 0.00 0.00 71 1014.2
20260508091702 13 69 3.2 14.5 0.00 0.00 0.00 74 1014.2
20260508091602 13 72 3.2 14.5 0.00 0.00 0.00 75 1014.2
20260508091501 13 96 4.8 12.9 0.00 0.00 0.00 74 1014.2
20260508091401 13 73 4.8 12.9 0.00 0.00 0.00 74 1014.2
20260508091301 13 75 4.8 12.9 0.00 0.00 0.00 73 1014.2
20260508091201 13 71 4.8 12.9 0.00 0.00 0.00 74 1014.2
20260508091100 13 69 3.2 12.9 0.00 0.00 0.00 74 1014.2
20260508091001 13 63 3.2 12.9 0.00 0.03 0.00 73 1014.2
20260508090859 13 75 3.2 12.9 0.00 0.03 0.00 73 1014.2
20260508090753 13 77 3.2 12.9 0.00 0.03 0.00 73 1014.2
20260508090701 13 88 3.2 12.9 0.00 0.03 0.00 74 1014.2
20260508090654 13 69 3.2 12.9 0.00 0.03 0.00 74 1014.2
20260508090554 13 26 4.8 12.9 0.00 0.03 0.00 74 1014.3
20260508090454 13 68 3.2 12.9 0.00 0.03 0.00 74 1014.3
20260508090354 13 74 3.2 12.9 0.00 0.03 0.00 74 1014.3
20260508090248 13 71 3.2 12.9 0.00 0.03 0.00 73 1014.3
20260508090201 13 73 3.2 12.9 0.00 0.03 0.00 75 1014.3
20260508090147 13 73 3.2 12.9 0.00 0.03 0.00 75 1014.3
20260508090047 13 78 3.2 12.9 0.00 0.03 0.00 74 1014.3
20260508085948 13 73 3.2 12.9 0.00 0.03 0.00 74 1014.3
20260508085847 13 80 3.2 12.9 0.00 0.03 0.00 74 1014.3
20260508085742 12 82 3.2 12.9 0.00 0.03 0.00 75 1014.3
20260508085700 12 77 3.2 12.9 0.00 0.03 0.00 76 1014.3
20260508085642 12 73 3.2 12.9 0.00 0.03 0.00 76 1014.3
20260508085542 12 67 3.2 8.0 0.00 0.03 0.00 78 1014.3
20260508085442 12 74 3.2 8.0 0.00 0.03 0.00 75 1014.3
20260508085341 12 79 3.2 8.0 0.00 0.03 0.00 75 1014.3
20260508085240 12 59 3.2 8.0 0.00 0.03 0.00 75 1014.3
20260508085201 12 62 3.2 8.0 0.00 0.03 0.00 77 1014.3
20260508085140 12 72 1.6 8.0 0.00 0.03 0.00 77 1014.3
20260508085040 12 61 3.2 8.0 0.00 0.03 0.00 78 1014.3
20260508084939 12 61 3.2 8.0 0.00 0.03 0.00 78 1014.3
20260508084916 12 61 3.2 8.0 0.00 0.03 0.00 78 1014.3
20260508084912 12 65 3.2 8.0 0.00 0.03 0.00 78 1014.3
20260508084639 12 65 3.2 8.0 0.00 0.03 0.00 78 1014.3
20260508084537 12 53 3.2 8.0 0.00 0.03 0.00 78 1014.3
20260508084437 12 54 3.2 11.3 0.00 0.03 0.00 78 1014.3
20260508084338 12 52 1.6 11.3 0.00 0.03 0.00 78 1014.3
20260508084238 12 73 3.2 14.5 0.00 0.03 0.00 77 1014.3
20260508084201 12 70 3.2 14.5 0.00 0.03 0.00 77 1014.3
20260508084136 12 71 3.2 14.5 0.00 0.03 0.00 77 1014.3
20260508084036 12 70 3.2 14.5 0.00 0.03 0.00 77 1014.3
20260508083935 12 76 3.2 14.5 0.00 0.03 0.00 77 1014.3
20260508083835 12 58 3.2 14.5 0.00 0.03 0.00 78 1014.3
20260508083735 12 69 3.2 14.5 0.00 0.03 0.00 77 1014.3
20260508083701 12 69 3.2 14.5 0.00 0.03 0.00 77 1014.3
20260508083636 12 69 4.8 14.5 0.00 0.03 0.00 76 1014.2
20260508083530 12 84 3.2 14.5 0.00 0.03 0.00 77 1014.3
20260508083430 12 74 4.8 14.5 0.00 0.03 0.00 76 1014.3
20260508083330 12 73 4.8 14.5 0.00 0.03 0.00 76 1014.3
20260508083230 12 79 4.8 14.5 0.00 0.03 0.00 76 1014.3
20260508083200 12 78 4.8 14.5 0.00 0.03 0.00 76 1014.3
20260508083130 12 69 4.8 14.5 0.00 0.03 0.00 77 1014.3
20260508083030 12 26 4.8 14.5 0.00 0.03 0.00 78 1014.3
20260508082929 12 79 4.8 14.5 0.00 0.03 0.00 78 1014.2
20260508082829 12 77 4.8 14.5 0.00 0.03 0.00 78 1014.2
20260508082729 12 69 4.8 14.5 0.00 0.03 0.00 79 1014.2
20260508082701 12 79 4.8 14.5 0.00 0.03 0.00 78 1014.2
20260508082629 12 78 4.8 14.5 0.00 0.03 0.00 78 1014.2
20260508082530 12 64 4.8 14.5 0.00 0.03 0.00 78 1014.2
20260508082429 12 71 4.8 14.5 0.00 0.03 0.00 78 1014.2
20260508082329 12 53 4.8 14.5 0.00 0.03 0.00 77 1014.2
20260508082229 12 67 4.8 14.5 0.00 0.03 0.00 77 1014.1
20260508082202 12 56 4.8 14.5 0.00 0.03 0.00 77 1014.1
20260508082129 12 80 3.2 14.5 0.00 0.03 0.00 77 1014.1
20260508082029 12 55 3.2 12.9 0.00 0.03 0.00 77 1014.1
20260508081929 12 75 4.8 12.9 0.00 0.03 0.00 76 1014.2
20260508081830 12 77 4.8 12.9 0.00 0.03 0.00 77 1014.2
20260508081729 12 73 4.8 12.9 0.00 0.03 0.00 77 1014.2
20260508081701 12 74 4.8 12.9 0.00 0.03 0.00 77 1014.2
20260508081629 12 73 4.8 12.9 0.00 0.03 0.00 77 1014.2
20260508081529 12 84 4.8 12.9 0.00 0.03 0.00 77 1014.2
20260508081431 12 55 4.8 12.9 0.00 0.03 0.00 77 1014.1
20260508081427 12 66 4.8 16.1 0.00 0.03 0.00 78 1014.2
20260508081417 12 78 4.8 12.9 0.00 0.03 0.00 77 1014.2
20260508081413 12 90 4.8 16.1 0.00 0.03 0.00 77 1014.2
20260508081129 12 82 4.8 16.1 0.00 0.03 0.00 78 1014.2
20260508081029 12 73 4.8 16.1 0.00 0.03 0.00 78 1014.2
20260508080929 12 71 4.8 16.1 0.00 0.03 0.00 78 1014.3
20260508080828 12 84 4.8 16.1 0.00 0.03 0.00 78 1014.3
20260508080728 12 82 4.8 16.1 0.00 0.03 0.00 77 1014.3
20260508080701 12 81 4.8 16.1 0.00 0.03 0.00 78 1014.3
20260508080629 12 76 4.8 16.1 0.00 0.03 0.00 78 1014.3
20260508080529 12 76 4.8 16.1 0.00 0.03 0.00 78 1014.3
20260508080429 12 89 4.8 16.1 0.00 0.03 0.00 78 1014.3
20260508080329 12 83 3.2 16.1 0.00 0.03 0.00 79 1014.3
20260508080229 11 68 3.2 14.5 0.00 0.03 0.00 78 1014.3
20260508080200 11 72 3.2 12.9 0.00 0.03 0.00 78 1014.3
20260508080129 11 82 3.2 12.9 0.00 0.03 0.00 80 1014.3
20260508080028 11 71 3.2 12.9 0.00 0.03 0.00 80 1014.3
20260508075928 11 78 3.2 12.9 0.00 0.03 0.00 81 1014.3
20260508075827 11 67 3.2 12.9 0.00 0.03 0.00 80 1014.3
20260508075725 11 75 3.2 8.0 0.00 0.03 0.00 81 1014.3
20260508075701 11 72 3.2 8.0 0.00 0.03 0.00 81 1014.3
20260508075621 11 74 3.2 8.0 0.00 0.03 0.00 81 1014.3
20260508075520 11 70 3.2 8.0 0.00 0.03 0.00 81 1014.3
20260508075420 11 64 3.2 8.0 0.00 0.03 0.00 81 1014.3
20260508075318 11 57 3.2 11.3 0.00 0.03 0.00 81 1014.3
20260508075201 11 61 3.2 16.1 0.00 0.03 0.00 82 1014.3
20260508075113 11 63 3.2 16.1 0.00 0.03 0.00 82 1014.4
20260508075013 11 66 3.2 16.1 0.00 0.03 0.00 82 1014.3
20260508074914 11 72 3.2 16.1 0.00 0.03 0.00 81 1014.3
20260508074814 11 71 3.2 16.1 0.00 0.03 0.00 81 1014.3
20260508074713 11 70 3.2 16.1 0.00 0.03 0.00 81 1014.3
20260508074701 11 69 3.2 16.1 0.00 0.03 0.00 81 1014.3
20260508074611 11 69 3.2 16.1 0.00 0.03 0.00 82 1014.3
20260508074511 11 59 3.2 16.1 0.00 0.03 0.00 82 1014.3
20260508074411 11 75 3.2 16.1 0.00 0.03 0.00 82 1014.3
20260508074311 11 88 3.2 16.1 0.00 0.03 0.00 81 1014.3
20260508074211 11 69 3.2 9.7 0.00 0.03 0.00 82 1014.3
20260508074201 11 60 3.2 9.7 0.00 0.03 0.00 82 1014.3
20260508074112 11 19 3.2 9.7 0.00 0.03 0.00 82 1014.3
20260508074012 11 65 3.2 9.7 0.00 0.03 0.00 82 1014.3
20260508073924 11 63 3.2 9.7 0.00 0.03 0.00 82 1014.3
20260508073916 11 57 3.2 9.7 0.00 0.03 0.00 82 1014.3
20260508073912 11 57 3.2 9.7 0.00 0.03 0.00 82 1014.3
20260508073608 11 61 3.2 9.7 0.00 0.03 0.00 82 1014.4
20260508073508 11 59 3.2 9.7 0.00 0.03 0.00 82 1014.4
20260508073406 11 67 3.2 9.7 0.00 0.03 0.00 82 1014.4
20260508073306 10 63 3.2 9.7 0.00 0.03 0.00 84 1014.4
20260508073200 10 63 3.2 9.7 0.00 0.03 0.00 84 1014.4
20260508073105 10 60 3.2 9.7 0.00 0.03 0.00 83 1014.4
20260508073005 10 61 3.2 9.7 0.00 0.03 0.00 84 1014.4
20260508072906 10 65 3.2 9.7 0.00 0.03 0.00 83 1014.3
20260508072806 10 65 3.2 8.0 0.00 0.03 0.00 83 1014.3
20260508072700 10 59 3.2 8.0 0.00 0.03 0.00 82 1014.3
20260508072650 10 60 3.2 8.0 0.00 0.03 0.00 82 1014.3
20260508072644 10 64 3.2 8.0 0.00 0.03 0.00 83 1014.4
20260508072640 10 63 3.2 8.0 0.00 0.03 0.00 82 1014.3
20260508072425 10 57 3.2 8.0 0.00 0.03 0.00 82 1014.3
20260508072416 10 64 3.2 8.0 0.00 0.03 0.00 82 1014.3
20260508072412 10 60 3.2 8.0 0.00 0.03 0.00 82 1014.3
20260508072101 10 61 3.2 8.0 0.00 0.03 0.00 84 1014.3
20260508072001 10 61 3.2 8.0 0.00 0.03 0.00 84 1014.3
20260508071901 10 64 3.2 8.0 0.00 0.03 0.00 84 1014.3
20260508071801 10 63 3.2 8.0 0.00 0.03 0.00 84 1014.3
20260508071701 10 62 3.2 8.0 0.00 0.03 0.00 84 1014.2
20260508071601 10 59 3.2 8.0 0.00 0.03 0.00 84 1014.2
20260508071501 10 62 1.6 8.0 0.00 0.03 0.00 85 1014.2
20260508071400 10 57 1.6 8.0 0.00 0.03 0.00 85 1014.2
20260508071300 10 57 1.6 8.0 0.00 0.03 0.00 86 1014.2
20260508071201 10 57 1.6 8.0 0.00 0.03 0.00 86 1014.2
20260508071101 10 60 3.2 8.0 0.00 0.03 0.00 86 1014.2
20260508071001 10 60 1.6 8.0 0.00 0.03 0.00 86 1014.2
20260508070901 10 59 1.6 8.0 0.00 0.03 0.00 86 1014.2
20260508070801 10 61 1.6 8.0 0.00 0.03 0.00 86 1014.2
20260508070701 10 61 3.2 8.0 0.00 0.03 0.00 87 1014.2
20260508070600 9 57 3.2 8.0 0.00 0.03 0.00 87 1014.1
20260508070500 9 60 3.2 8.0 0.00 0.03 0.00 87 1014.1
20260508070400 9 59 3.2 8.0 0.00 0.03 0.00 87 1014.1
20260508070301 9 57 3.2 8.0 0.00 0.03 0.00 87 1014.2
20260508070200 9 60 3.2 8.0 0.00 0.03 0.00 87 1014.2
20260508070100 9 61 1.6 8.0 0.00 0.03 0.00 89 1014.2
20260508070001 9 58 3.2 8.0 0.00 0.03 0.00 89 1014.2
20260508065901 9 58 3.2 8.0 0.00 0.03 0.00 89 1014.2
20260508065800 9 57 3.2 8.0 0.00 0.03 0.00 89 1014.2
20260508065700 9 63 1.6 8.0 0.00 0.03 0.00 89 1014.2
20260508065600 9 58 1.6 6.4 0.00 0.03 0.00 89 1014.2
20260508065500 9 59 1.6 6.4 0.00 0.03 0.00 89 1014.2
20260508065401 9 59 1.6 6.4 0.00 0.03 0.00 90 1014.2
20260508065301 9 61 1.6 4.8 0.00 0.03 0.00 90 1014.2
20260508065201 8 57 1.6 4.8 0.00 0.03 0.00 90 1014.2
20260508065101 8 59 1.6 4.8 0.00 0.03 0.00 90 1014.3
20260508065001 8 60 1.6 6.4 0.00 0.03 0.00 92 1014.2
20260508064901 8 58 1.6 9.7 0.00 0.03 0.00 92 1014.2
20260508064801 8 59 1.6 9.7 0.00 0.03 0.00 92 1014.2
20260508064702 8 59 1.6 9.7 0.00 0.03 0.00 93 1014.2
20260508064601 8 59 3.2 9.7 0.00 0.03 0.00 95 1014.2
20260508064501 8 57 3.2 9.7 0.00 0.03 0.00 95 1014.2
20260508064401 8 58 3.2 9.7 0.00 0.03 0.00 96 1014.2
20260508064301 8 59 3.2 9.7 0.00 0.03 0.00 96 1014.3
20260508064201 8 59 3.2 9.7 0.00 0.03 0.00 96 1014.3
20260508064101 8 62 3.2 9.7 0.00 0.03 0.00 96 1014.2
20260508064001 8 65 3.2 9.7 0.00 0.03 0.00 96 1014.2
20260508063901 8 63 3.2 8.0 0.00 0.03 0.00 96 1014.2
20260508063800 8 63 3.2 8.0 0.00 0.03 0.00 96 1014.2
20260508063700 8 63 3.2 8.0 0.00 0.03 0.00 96 1014.2
20260508063601 8 60 3.2 8.0 0.00 0.03 0.00 96 1014.2
20260508063501 7 61 3.2 8.0 0.00 0.03 0.00 96 1014.2
20260508063401 7 61 3.2 8.0 0.00 0.03 0.00 96 1014.2
20260508063301 7 62 3.2 11.3 0.00 0.03 0.00 96 1014.2
20260508063201 7 62 3.2 11.3 0.00 0.03 0.00 96 1014.2
20260508063100 7 62 3.2 11.3 0.00 0.03 0.00 96 1014.2
20260508063000 7 65 3.2 11.3 0.00 0.03 0.00 96 1014.2
20260508062900 7 63 3.2 11.3 0.00 0.03 0.00 96 1014.2
20260508062800 7 63 3.2 11.3 0.00 0.03 0.00 96 1014.2
20260508062701 7 62 3.2 11.3 0.00 0.03 0.00 96 1014.2
20260508062601 7 63 3.2 11.3 0.00 0.03 0.00 96 1014.2
20260508062502 7 67 3.2 11.3 0.00 0.03 0.00 96 1014.2
20260508062401 7 64 1.6 11.3 0.00 0.03 0.00 96 1014.2
20260508062305 7 67 1.6 8.0 0.00 0.03 0.00 96 1014.1
20260508062201 7 57 1.6 8.0 0.00 0.03 0.00 96 1014.1
20260508062101 7 58 1.6 8.0 0.00 0.03 0.00 96 1014.1
20260508062001 6 59 1.6 8.0 0.00 0.03 0.00 96 1014.1
20260508061901 6 64 0.0 8.0 0.00 0.03 0.00 96 1014.1
20260508061801 6 57 0.0 4.8 0.00 0.03 0.00 96 1014.1
20260508061701 6 59 0.0 4.8 0.00 0.03 0.00 96 1014.1
20260508061601 6 54 0.0 0.0 0.00 0.03 0.00 96 1014.1
20260508061501 6 54 0.0 0.0 0.00 0.03 0.00 96 1014.1
20260508061400 6 54 0.0 0.0 0.00 0.03 0.00 96 1014.1
20260508061301 6 54 0.0 0.0 0.00 0.03 0.00 95 1014.1
20260508061201 6 54 0.0 0.0 0.00 0.03 0.00 96 1014.1
20260508061101 6 54 0.0 1.6 0.00 0.03 0.00 96 1014.1
20260508061001 6 54 0.0 1.6 0.00 0.03 0.00 96 1014.1
20260508060925 6 54 0.0 1.6 0.00 0.03 0.00 96 1014.1
20260508060917 6 54 0.0 1.6 0.00 0.03 0.00 96 1014.1
20260508060913 6 54 0.0 1.6 0.00 0.03 0.00 96 1014.1
20260508060601 6 54 0.0 1.6 0.00 0.03 0.00 96 1014.1
20260508060501 6 54 0.0 1.6 0.00 0.03 0.00 96 1014.1
20260508060424 6 54 0.0 1.6 0.00 0.03 0.00 95 1014.1
20260508060416 6 54 0.0 1.6 0.00 0.03 0.00 95 1014.1
20260508060412 6 54 0.0 1.6 0.00 0.03 0.00 95 1014.1
20260508060152 5 57 0.0 1.6 0.00 0.03 0.00 96 1014.1
20260508060142 6 57 0.0 1.6 0.00 0.03 0.00 95 1014.1
20260508060138 6 57 0.0 1.6 0.00 0.03 0.00 96 1014.1
20260508055923 5 57 0.0 1.6 0.00 0.03 0.00 96 1014.1
20260508055915 5 57 0.0 1.6 0.00 0.03 0.00 96 1014.1
20260508055911 5 57 0.0 1.6 0.00 0.03 0.00 96 1014.1
20260508055601 5 57 0.0 1.6 0.00 0.03 0.00 95 1014.1
20260508055501 5 57 0.0 3.2 0.00 0.03 0.00 95 1014.1
20260508055401 5 57 0.0 3.2 0.00 0.03 0.00 95 1014.1
20260508055305 5 57 0.0 3.2 0.00 0.03 0.00 95 1013.9
20260508055201 5 57 0.0 3.2 0.00 0.03 0.00 95 1014.1
20260508055101 5 57 0.0 3.2 0.00 0.03 0.00 95 1013.9
20260508055001 5 57 0.0 3.2 0.00 0.03 0.00 95 1013.9
20260508054902 5 57 0.0 3.2 0.00 0.03 0.00 95 1013.9
20260508054804 5 57 0.0 3.2 0.00 0.03 0.00 95 1013.9
20260508054701 5 57 0.0 3.2 0.00 0.03 0.00 95 1013.9
20260508054601 5 57 0.0 3.2 0.00 0.03 0.00 95 1013.8
20260508054501 5 57 0.0 3.2 0.00 0.03 0.00 95 1013.8
20260508054401 5 57 0.0 3.2 0.00 0.03 0.00 95 1013.8
20260508054302 5 56 0.0 3.2 0.00 0.03 0.00 95 1013.8
20260508054201 5 56 0.0 3.2 0.00 0.03 0.00 95 1013.8
20260508054101 4 56 0.0 3.2 0.00 0.03 0.00 95 1013.8
20260508054001 4 56 0.0 3.2 0.00 0.03 0.00 95 1013.9
20260508053929 4 56 0.0 3.2 0.00 0.03 0.00 95 1013.9
20260508053925 4 56 0.0 3.2 0.00 0.03 0.00 95 1013.9
20260508053921 4 56 0.0 3.2 0.00 0.03 0.00 95 1013.9
20260508053601 4 57 0.0 3.2 0.00 0.03 0.00 95 1013.8
20260508053501 4 57 0.0 3.2 0.00 0.03 0.00 95 1013.9
20260508053401 4 57 0.0 3.2 0.00 0.03 0.00 95 1013.8
20260508053301 4 56 0.0 3.2 0.00 0.03 0.00 95 1013.9
20260508053201 4 57 0.0 3.2 0.00 0.03 0.00 95 1013.8
20260508053101 4 56 0.0 3.2 0.00 0.03 0.00 95 1013.8
20260508053001 3 55 0.0 1.6 0.00 0.03 0.00 95 1013.8
20260508052900 3 55 0.0 1.6 0.00 0.03 0.00 95 1013.8
20260508052800 3 55 0.0 1.6 0.00 0.03 0.00 95 1013.8
20260508052701 3 55 0.0 1.6 0.00 0.03 0.00 95 1013.8
20260508052602 3 55 0.0 1.6 0.00 0.03 0.00 95 1013.8
20260508052502 3 55 0.0 1.6 0.00 0.03 0.00 95 1013.8
20260508052426 3 55 0.0 3.2 0.00 0.03 0.00 95 1013.8
20260508052422 3 55 0.0 3.2 0.00 0.03 0.00 94 1013.8
20260508052414 3 55 0.0 3.2 0.00 0.03 0.00 94 1013.8
20260508052102 3 55 0.0 3.2 0.00 0.03 0.00 94 1013.8
20260508052001 3 56 0.0 3.2 0.00 0.03 0.00 94 1013.8
20260508051901 3 57 1.6 4.8 0.00 0.03 0.00 94 1013.8
20260508051801 3 57 1.6 4.8 0.00 0.03 0.00 94 1013.8
20260508051702 3 57 1.6 4.8 0.00 0.03 0.00 94 1013.8
20260508051601 3 57 1.6 4.8 0.00 0.03 0.00 94 1013.8
20260508051501 3 57 1.6 4.8 0.00 0.03 0.00 94 1013.8
20260508051400 3 57 1.6 4.8 0.00 0.03 0.00 94 1013.8
20260508051301 3 57 1.6 4.8 0.00 0.03 0.00 94 1013.8
20260508051201 3 57 1.6 4.8 0.00 0.03 0.00 94 1013.8
20260508051101 3 57 1.6 4.8 0.00 0.03 0.00 94 1013.7
20260508051001 3 57 1.6 4.8 0.00 0.03 0.00 94 1013.7
20260508050901 3 57 1.6 3.2 0.00 0.03 0.00 94 1013.7
20260508050800 3 57 1.6 3.2 0.00 0.03 0.00 94 1013.7
20260508050700 3 57 0.0 3.2 0.00 0.03 0.00 94 1013.7
20260508050600 3 57 0.0 3.2 0.00 0.03 0.00 94 1013.7
20260508050500 3 57 0.0 3.2 0.00 0.03 0.00 94 1013.6
20260508050400 3 57 0.0 3.2 0.00 0.03 0.00 94 1013.6
20260508050301 3 57 0.0 3.2 0.00 0.03 0.00 94 1013.6
20260508050200 3 57 0.0 1.6 0.00 0.03 0.00 94 1013.5
20260508050100 3 57 0.0 1.6 0.00 0.03 0.00 94 1013.5
20260508050001 3 57 0.0 1.6 0.00 0.03 0.00 94 1013.5
20260508045901 3 57 0.0 1.6 0.00 0.03 0.00 94 1013.5
20260508045801 3 57 0.0 1.6 0.00 0.03 0.00 94 1013.5
20260508045706 3 57 0.0 1.6 0.00 0.03 0.00 94 1013.4
20260508045654 3 57 0.0 3.2 0.00 0.03 0.00 93 1013.4
20260508045643 3 57 0.0 1.6 0.00 0.03 0.00 94 1013.4
20260508045639 3 57 0.0 1.6 0.00 0.03 0.00 94 1013.4
20260508045418 3 57 0.0 3.2 0.00 0.03 0.00 94 1013.4
20260508045414 3 57 0.0 3.2 0.00 0.03 0.00 94 1013.4
20260508045409 3 57 0.0 3.2 0.00 0.03 0.00 93 1013.4
20260508045049 3 57 0.0 3.2 0.00 0.03 0.00 93 1013.4
20260508044949 3 58 0.0 3.2 0.00 0.03 0.00 93 1013.4
20260508044849 3 58 1.6 3.2 0.00 0.03 0.00 93 1013.5
20260508044749 3 58 1.6 3.2 0.00 0.03 0.00 93 1013.5
20260508044653 3 58 1.6 3.2 0.00 0.03 0.00 93 1013.5
20260508044549 3 58 1.6 3.2 0.00 0.03 0.00 93 1013.5
20260508044447 3 58 1.6 3.2 0.00 0.03 0.00 93 1013.5
20260508044345 3 58 1.6 3.2 0.00 0.03 0.00 93 1013.4
20260508044244 3 58 1.6 3.2 0.00 0.03 0.00 93 1013.4
20260508044147 3 58 1.6 3.2 0.00 0.03 0.00 93 1013.4
20260508044039 3 58 1.6 3.2 0.00 0.03 0.00 93 1013.4
20260508043940 3 58 0.0 3.2 0.00 0.03 0.00 93 1013.3
20260508043839 3 58 0.0 3.2 0.00 0.03 0.00 93 1013.3
20260508043739 3 58 0.0 3.2 0.00 0.03 0.00 93 1013.3
20260508043641 3 58 0.0 3.2 0.00 0.03 0.00 93 1013.3
20260508043620 3 58 0.0 0.0 0.00 0.03 0.00 93 1013.3
20260508043614 3 58 0.0 3.2 0.00 0.03 0.00 93 1013.3
20260508043610 3 58 0.0 0.0 0.00 0.03 0.00 93 1013.3
20260508043353 3 58 0.0 0.0 0.00 0.03 0.00 93 1013.3
20260508043349 3 57 0.0 0.0 0.00 0.03 0.00 93 1013.3
20260508043345 3 58 0.0 0.0 0.00 0.03 0.00 93 1013.3
20260508043035 3 58 0.0 0.0 0.00 0.03 0.00 93 1013.3
20260508042933 3 58 0.0 0.0 0.00 0.03 0.00 93 1013.4
20260508042833 3 57 0.0 0.0 0.00 0.03 0.00 93 1013.4
20260508042732 3 58 0.0 0.0 0.00 0.03 0.00 93 1013.3
20260508042629 3 59 0.0 0.0 0.00 0.03 0.00 93 1013.3
20260508042529 3 59 0.0 0.0 0.00 0.03 0.00 93 1013.3
20260508042429 3 59 0.0 0.0 0.00 0.03 0.00 93 1013.3
20260508042329 3 59 0.0 0.0 0.00 0.03 0.00 93 1013.3
20260508042229 3 59 0.0 0.0 0.00 0.03 0.00 93 1013.3
20260508042129 3 59 0.0 0.0 0.00 0.03 0.00 93 1013.3
20260508042029 3 59 0.0 0.0 0.00 0.03 0.00 93 1013.3
20260508041929 3 59 0.0 0.0 0.00 0.03 0.00 93 1013.3
20260508041829 3 59 0.0 0.0 0.00 0.03 0.00 93 1013.3
20260508041727 3 59 0.0 0.0 0.00 0.03 0.00 93 1013.3
20260508041627 3 59 0.0 0.0 0.00 0.03 0.00 93 1013.3
20260508041525 3 59 0.0 0.0 0.00 0.03 0.00 93 1013.3
20260508041423 3 59 0.0 0.0 0.00 0.03 0.00 93 1013.3
20260508041323 3 59 0.0 0.0 0.00 0.03 0.00 93 1013.3
20260508041221 3 59 0.0 0.0 0.00 0.03 0.00 93 1013.3
20260508041121 3 59 0.0 0.0 0.00 0.03 0.00 93 1013.3
20260508041116 3 59 0.0 0.0 0.00 0.03 0.00 93 1013.3
20260508041107 3 59 0.0 0.0 0.00 0.03 0.00 93 1013.3
20260508041103 3 59 0.0 0.0 0.00 0.03 0.00 93 1013.3
20260508040843 3 59 0.0 0.0 0.00 0.03 0.00 93 1013.3
20260508040840 3 59 0.0 0.0 0.00 0.03 0.00 93 1013.3
20260508040613 3 59 0.0 0.0 0.00 0.03 0.00 93 1013.3
20260508040513 3 59 0.0 0.0 0.00 0.03 0.00 93 1013.3
20260508040411 3 59 0.0 0.0 0.00 0.03 0.00 93 1013.3
20260508040311 3 59 0.0 0.0 0.00 0.03 0.00 93 1013.2
20260508040209 3 59 0.0 0.0 0.00 0.03 0.00 93 1013.3
20260508040109 3 59 0.0 0.0 0.00 0.03 0.00 93 1013.3
20260508040007 3 59 0.0 0.0 0.00 0.03 0.00 93 1013.3
20260508035905 3 59 0.0 0.0 0.00 0.03 0.00 93 1013.3
20260508035805 3 59 0.0 0.0 0.00 0.03 0.00 93 1013.3
20260508035701 3 59 0.0 0.0 0.00 0.03 0.00 93 1013.3
20260508035602 3 59 0.0 0.0 0.00 0.03 0.00 93 1013.3
20260508035501 3 59 0.0 0.0 0.00 0.03 0.00 93 1013.3
20260508035401 3 59 0.0 0.0 0.00 0.03 0.00 93 1013.3
20260508035302 3 59 0.0 0.0 0.00 0.03 0.00 93 1013.3
20260508035200 3 59 0.0 0.0 0.00 0.03 0.00 93 1013.3
20260508035101 3 59 0.0 0.0 0.00 0.03 0.00 93 1013.3
20260508035001 3 59 0.0 0.0 0.00 0.03 0.00 93 1013.3
20260508034901 3 59 0.0 0.0 0.00 0.03 0.00 93 1013.3
20260508034801 3 59 0.0 0.0 0.00 0.03 0.00 93 1013.3
20260508034701 3 59 0.0 0.0 0.00 0.03 0.00 93 1013.3
20260508034600 3 59 0.0 0.0 0.00 0.03 0.00 93 1013.3
20260508034501 3 59 0.0 0.0 0.00 0.03 0.00 93 1013.3
20260508034400 3 59 0.0 0.0 0.00 0.03 0.00 93 1013.3
20260508034300 3 59 0.0 0.0 0.00 0.03 0.00 93 1013.2
20260508034200 3 59 0.0 0.0 0.00 0.03 0.00 93 1013.2
20260508034101 3 59 0.0 0.0 0.00 0.03 0.00 93 1013.2
20260508034001 3 59 0.0 1.6 0.00 0.03 0.00 93 1013.2
20260508033901 3 59 0.0 1.6 0.00 0.03 0.00 93 1013.2
20260508033801 3 59 0.0 1.6 0.00 0.03 0.00 93 1013.2
20260508033701 3 59 0.0 1.6 0.00 0.03 0.00 93 1013.2
20260508033600 3 59 0.0 1.6 0.00 0.03 0.00 93 1013.2
20260508033500 3 59 0.0 1.6 0.00 0.03 0.00 93 1013.2
20260508033401 3 59 0.0 1.6 0.00 0.03 0.00 93 1013.2
20260508033301 3 59 0.0 1.6 0.00 0.03 0.00 93 1013.2
20260508033201 3 59 0.0 1.6 0.00 0.03 0.00 93 1013.2
20260508033101 3 59 0.0 1.6 0.00 0.03 0.00 93 1013.2
20260508033000 3 59 0.0 1.6 0.00 0.03 0.00 93 1013.1
20260508032900 3 59 0.0 1.6 0.00 0.03 0.00 93 1013.1
20260508032801 3 59 0.0 1.6 0.00 0.03 0.00 93 1013.1
20260508032701 3 59 0.0 1.6 0.00 0.03 0.00 93 1013.1
20260508032600 3 59 0.0 1.6 0.00 0.03 0.00 93 1013.1
20260508032501 3 59 0.0 1.6 0.00 0.03 0.00 93 1013.1
20260508032401 3 59 0.0 1.6 0.00 0.03 0.00 93 1013.1
20260508032305 3 59 0.0 1.6 0.00 0.03 0.00 93 1013.1
20260508032201 3 59 0.0 1.6 0.00 0.03 0.00 93 1013.1
20260508032101 3 61 0.0 1.6 0.00 0.03 0.00 93 1013.0
20260508032001 3 61 0.0 1.6 0.00 0.03 0.00 93 1013.1
20260508031901 3 61 0.0 1.6 0.00 0.03 0.00 93 1013.1
20260508031801 3 61 0.0 1.6 0.00 0.03 0.00 93 1013.1
20260508031700 3 61 0.0 1.6 0.00 0.03 0.00 93 1013.1
20260508031601 3 61 0.0 1.6 0.00 0.03 0.00 93 1013.1
20260508031506 3 61 0.0 1.6 0.00 0.03 0.00 93 1013.1
20260508031401 3 61 0.0 1.6 0.00 0.03 0.00 93 1013.1
20260508031201 3 61 0.0 1.6 0.00 0.03 0.00 93 1013.1
20260508031101 3 61 0.0 0.0 0.00 0.03 0.00 93 1013.1
20260508031001 3 61 0.0 0.0 0.00 0.03 0.00 92 1013.0
20260508030902 3 61 0.0 0.0 0.00 0.03 0.00 92 1013.1
20260508030801 3 61 0.0 0.0 0.00 0.03 0.00 92 1013.1
20260508030700 3 61 0.0 0.0 0.00 0.03 0.00 92 1013.1
20260508030600 3 61 0.0 0.0 0.00 0.03 0.00 92 1013.0
20260508030500 3 61 0.0 0.0 0.00 0.03 0.00 92 1013.1
20260508030400 3 61 0.0 0.0 0.00 0.03 0.00 92 1013.1
20260508030300 3 61 0.0 0.0 0.00 0.03 0.00 92 1013.1
20260508030200 3 61 0.0 0.0 0.00 0.03 0.00 92 1013.1
20260508030001 3 61 0.0 0.0 0.00 0.03 0.00 92 1013.0
20260508025900 3 61 0.0 0.0 0.00 0.03 0.00 92 1013.0
20260508025800 3 61 0.0 0.0 0.00 0.03 0.00 92 1013.0
20260508025701 3 61 0.0 0.0 0.00 0.03 0.00 92 1013.0
20260508025601 3 61 0.0 0.0 0.00 0.03 0.00 92 1013.0
20260508025501 3 61 0.0 0.0 0.00 0.03 0.00 92 1013.0
20260508025401 3 61 0.0 1.6 0.00 0.03 0.00 92 1013.0
20260508025301 3 61 0.0 1.6 0.00 0.03 0.00 92 1013.0
20260508025200 3 61 0.0 1.6 0.00 0.03 0.00 92 1013.0
20260508025101 3 61 0.0 1.6 0.00 0.03 0.00 92 1013.0
20260508025001 3 61 0.0 1.6 0.00 0.03 0.00 92 1013.0
20260508024901 3 61 0.0 1.6 0.00 0.03 0.00 92 1013.0
20260508024850 3 61 0.0 1.6 0.00 0.03 0.00 92 1013.0
20260508024845 3 61 0.0 1.6 0.00 0.03 0.00 92 1013.0
20260508024841 3 61 0.0 1.6 0.00 0.03 0.00 92 1013.0
20260508024601 3 61 0.0 1.6 0.00 0.03 0.00 92 1013.0
20260508024501 3 61 0.0 1.6 0.00 0.03 0.00 92 1013.0
20260508024401 3 61 0.0 0.0 0.00 0.03 0.00 92 1013.0
20260508024301 3 61 0.0 0.0 0.00 0.03 0.00 92 1013.0
20260508024200 3 61 0.0 0.0 0.00 0.03 0.00 92 1013.0
20260508024100 3 61 0.0 1.6 0.00 0.03 0.00 92 1013.0
20260508024001 3 61 0.0 1.6 0.00 0.03 0.00 92 1013.0
20260508023900 3 61 0.0 1.6 0.00 0.03 0.00 92 1013.0
20260508023800 3 61 0.0 1.6 0.00 0.03 0.00 92 1013.0
20260508023701 3 61 0.0 1.6 0.00 0.03 0.00 92 1013.0
20260508023601 3 61 0.0 1.6 0.00 0.03 0.00 92 1013.0
20260508023501 3 61 0.0 1.6 0.00 0.03 0.00 92 1013.0
20260508023401 3 61 0.0 1.6 0.00 0.03 0.00 92 1013.0
20260508023301 3 61 0.0 1.6 0.00 0.03 0.00 92 1013.1
20260508023200 3 61 0.0 1.6 0.00 0.03 0.00 92 1013.1
20260508023100 3 61 0.0 1.6 0.00 0.03 0.00 92 1013.0
20260508023000 3 61 0.0 1.6 0.00 0.03 0.00 92 1013.1
20260508022900 3 61 0.0 1.6 0.00 0.03 0.00 92 1013.1
20260508022801 3 61 0.0 1.6 0.00 0.03 0.00 92 1013.1
20260508022701 3 61 0.0 1.6 0.00 0.03 0.00 92 1013.1
20260508022601 3 61 0.0 1.6 0.00 0.03 0.00 92 1013.1
20260508022501 3 61 0.0 1.6 0.00 0.03 0.00 92 1013.0
20260508022406 3 61 0.0 1.6 0.00 0.03 0.00 92 1013.0
20260508022255 3 61 0.0 1.6 0.00 0.03 0.00 92 1013.1
20260508022129 3 61 0.0 1.6 0.00 0.03 0.00 92 1013.0
20260508022055 3 61 0.0 1.6 0.00 0.03 0.00 92 1013.0
20260508021955 3 61 0.0 1.6 0.00 0.03 0.00 92 1013.0
20260508021858 3 61 0.0 1.6 0.00 0.03 0.00 92 1013.1
20260508021751 3 61 0.0 1.6 0.00 0.03 0.00 92 1013.0
20260508021649 3 61 0.0 1.6 0.00 0.03 0.00 92 1013.0
20260508021629 3 61 0.0 1.6 0.00 0.03 0.00 91 1013.0
20260508021549 3 61 0.0 1.6 0.00 0.03 0.00 92 1013.0
20260508021449 3 61 0.0 1.6 0.00 0.03 0.00 91 1013.0
20260508021354 3 61 0.0 1.6 0.00 0.03 0.00 91 1013.0
20260508021245 3 61 0.0 1.6 0.00 0.03 0.00 91 1013.0
20260508021129 3 61 0.0 1.6 0.00 0.03 0.00 91 1013.1
20260508021043 3 61 0.0 1.6 0.00 0.03 0.00 91 1013.1
20260508020943 3 61 0.0 1.6 0.00 0.03 0.00 92 1013.1
20260508020847 3 61 0.0 3.2 0.00 0.03 0.00 92 1013.1
20260508020743 3 61 1.6 3.2 0.00 0.03 0.00 92 1013.1
20260508020628 3 61 1.6 3.2 0.00 0.03 0.00 92 1013.1
20260508020540 3 61 1.6 3.2 0.00 0.03 0.00 92 1013.2
20260508020439 3 61 1.6 3.2 0.00 0.03 0.00 92 1013.2
20260508020340 3 61 1.6 3.2 0.00 0.03 0.00 92 1013.2
20260508020237 3 61 1.6 3.2 0.00 0.03 0.00 92 1013.1
20260508020129 3 61 1.6 3.2 0.00 0.03 0.00 92 1013.1
20260508020035 3 61 1.6 3.2 0.00 0.03 0.00 92 1013.2
20260508015932 3 61 1.6 3.2 0.00 0.03 0.00 92 1013.2
20260508015833 3 61 1.6 3.2 0.00 0.03 0.00 92 1013.2
20260508015729 3 61 1.6 3.2 0.00 0.03 0.00 92 1013.1
20260508015629 3 61 1.6 3.2 0.00 0.03 0.00 92 1013.2
20260508015529 3 61 1.6 3.2 0.00 0.03 0.00 91 1013.2
20260508015429 3 61 1.6 3.2 0.00 0.03 0.00 91 1013.1
20260508015352 3 61 1.6 3.2 0.00 0.03 0.00 91 1013.2
20260508015344 3 61 1.6 3.2 0.00 0.03 0.00 91 1013.1
20260508015340 3 61 1.6 3.2 0.00 0.03 0.00 91 1013.2
20260508015029 3 61 1.6 3.2 0.00 0.03 0.00 91 1013.2
20260508014929 3 61 0.0 3.2 0.00 0.03 0.00 91 1013.2
20260508014829 3 61 0.0 3.2 0.00 0.03 0.00 91 1013.2
20260508014729 3 61 0.0 3.2 0.00 0.03 0.00 91 1013.2
20260508014628 3 61 0.0 3.2 0.00 0.03 0.00 91 1013.2
20260508014528 3 61 0.0 3.2 0.00 0.03 0.00 91 1013.2
20260508014429 3 61 0.0 3.2 0.00 0.03 0.00 91 1013.2
20260508014328 3 61 0.0 3.2 0.00 0.03 0.00 91 1013.2
20260508014229 3 61 0.0 3.2 0.00 0.03 0.00 91 1013.2
20260508014129 3 61 0.0 1.6 0.00 0.03 0.00 91 1013.2
20260508014029 3 61 0.0 1.6 0.00 0.03 0.00 91 1013.2
20260508013929 3 61 0.0 1.6 0.00 0.03 0.00 90 1013.2
20260508013828 3 61 0.0 1.6 0.00 0.03 0.00 90 1013.2
20260508013729 3 61 0.0 1.6 0.00 0.03 0.00 90 1013.2
20260508013629 3 61 0.0 3.2 0.00 0.03 0.00 90 1013.2
20260508013528 3 61 0.0 3.2 0.00 0.03 0.00 90 1013.2
20260508013428 3 61 0.0 3.2 0.00 0.03 0.00 90 1013.2
20260508013351 3 61 0.0 3.2 0.00 0.03 0.00 90 1013.2
20260508013344 3 61 0.0 3.2 0.00 0.03 0.00 89 1013.2
20260508013340 3 61 0.0 3.2 0.00 0.03 0.00 89 1013.2
20260508013029 3 61 1.6 3.2 0.00 0.03 0.00 90 1013.2
20260508012928 3 61 1.6 3.2 0.00 0.03 0.00 89 1013.2
20260508012828 3 61 1.6 4.8 0.00 0.03 0.00 89 1013.2
20260508012729 3 61 1.6 4.8 0.00 0.03 0.00 89 1013.2
20260508012629 3 61 1.6 4.8 0.00 0.03 0.00 89 1013.2
20260508012528 3 61 1.6 4.8 0.00 0.03 0.00 89 1013.2
20260508012429 3 61 1.6 4.8 0.00 0.03 0.00 90 1013.2
20260508012329 3 61 1.6 4.8 0.00 0.03 0.00 90 1013.2
20260508012229 3 61 1.6 4.8 0.00 0.03 0.00 90 1013.2
20260508012129 3 61 1.6 4.8 0.00 0.03 0.00 91 1013.2
20260508012028 4 61 1.6 4.8 0.00 0.03 0.00 91 1013.2
20260508011928 4 61 1.6 4.8 0.00 0.03 0.00 91 1013.2
20260508011829 4 61 1.6 4.8 0.00 0.03 0.00 91 1013.2
20260508011729 4 61 1.6 4.8 0.00 0.03 0.00 91 1013.2
20260508011629 4 61 1.6 4.8 0.00 0.03 0.00 91 1013.2
20260508011529 4 61 1.6 4.8 0.00 0.03 0.00 91 1013.2
20260508011429 4 61 1.6 4.8 0.00 0.03 0.00 91 1013.2
20260508011329 4 61 1.6 4.8 0.00 0.03 0.00 91 1013.2
20260508011229 4 61 1.6 4.8 0.00 0.03 0.00 91 1013.2
20260508011128 4 61 1.6 4.8 0.00 0.03 0.00 91 1013.1
20260508011028 4 61 3.2 4.8 0.00 0.03 0.00 91 1013.1
20260508010929 4 61 3.2 4.8 0.00 0.03 0.00 91 1013.1
20260508010829 4 61 1.6 4.8 0.00 0.03 0.00 91 1013.2
20260508010733 4 61 1.6 4.8 0.00 0.03 0.00 91 1013.1
20260508010629 4 61 1.6 4.8 0.00 0.03 0.00 91 1013.1
20260508010528 4 61 1.6 4.8 0.00 0.03 0.00 91 1013.2
20260508010428 4 61 1.6 4.8 0.00 0.03 0.00 91 1013.2
20260508010328 4 61 1.6 4.8 0.00 0.03 0.00 90 1013.2
20260508010228 4 61 0.0 1.6 0.00 0.03 0.00 90 1013.2
20260508010128 4 61 0.0 1.6 0.00 0.03 0.00 90 1013.2
20260508010028 4 61 0.0 1.6 0.00 0.03 0.00 90 1013.2
20260508005929 4 61 0.0 1.6 0.00 0.03 0.00 90 1013.2
20260508005829 4 61 0.0 1.6 0.00 0.03 0.00 90 1013.2
20260508005729 4 61 0.0 1.6 0.00 0.03 0.00 90 1013.1
20260508005630 4 61 0.0 1.6 0.00 0.03 0.00 90 1013.2
20260508005529 4 61 0.0 1.6 0.00 0.03 0.00 90 1013.2
20260508005428 4 61 0.0 1.6 0.00 0.03 0.00 90 1013.2
20260508005328 4 61 0.0 0.0 0.00 0.03 0.00 90 1013.2
20260508005229 4 61 0.0 0.0 0.00 0.03 0.00 89 1013.3
20260508005129 4 61 0.0 0.0 0.00 0.03 0.00 89 1013.3
20260508005029 4 61 0.0 0.0 0.00 0.03 0.00 89 1013.3
20260508004929 4 61 0.0 0.0 0.00 0.03 0.00 89 1013.3
20260508004829 4 61 0.0 0.0 0.00 0.03 0.00 89 1013.3
20260508004729 4 61 0.0 0.0 0.00 0.03 0.00 89 1013.4
20260508004629 4 61 0.0 1.6 0.00 0.03 0.00 89 1013.3
20260508004529 4 61 0.0 1.6 0.00 0.03 0.00 89 1013.4
20260508004429 4 61 0.0 1.6 0.00 0.03 0.00 89 1013.4
20260508004328 4 61 0.0 1.6 0.00 0.03 0.00 89 1013.4
20260508004228 4 61 0.0 1.6 0.00 0.03 0.00 89 1013.4
20260508004129 4 61 0.0 3.2 0.00 0.03 0.00 89 1013.4
20260508004029 4 61 1.6 3.2 0.00 0.03 0.00 89 1013.4
20260508003929 4 61 1.6 3.2 0.00 0.03 0.00 89 1013.4
20260508003829 4 61 1.6 3.2 0.00 0.03 0.00 89 1013.4
20260508003728 4 61 1.6 3.2 0.00 0.03 0.00 89 1013.4
20260508003628 4 61 1.6 3.2 0.00 0.03 0.00 89 1013.4
20260508003528 4 61 1.6 3.2 0.00 0.03 0.00 89 1013.5
20260508003428 4 61 1.6 3.2 0.00 0.03 0.00 89 1013.4
20260508003351 5 61 1.6 3.2 0.00 0.03 0.00 89 1013.4
20260508003347 5 61 1.6 3.2 0.00 0.03 0.00 90 1013.4
20260508003339 5 61 1.6 3.2 0.00 0.03 0.00 90 1013.4
20260508003029 5 61 1.6 3.2 0.00 0.03 0.00 90 1013.4
20260508002930 5 61 1.6 3.2 0.00 0.03 0.00 90 1013.4
20260508002828 5 61 1.6 3.2 0.00 0.03 0.00 90 1013.4
20260508002728 5 61 1.6 3.2 0.00 0.03 0.00 90 1013.4
20260508002629 5 61 1.6 3.2 0.00 0.03 0.00 90 1013.4
20260508002527 5 61 0.0 3.2 0.00 0.03 0.00 90 1013.4
20260508002427 5 61 0.0 3.2 0.00 0.03 0.00 90 1013.4
20260508002324 5 61 0.0 3.2 0.00 0.03 0.00 90 1013.4
20260508002224 5 61 0.0 3.2 0.00 0.03 0.00 90 1013.4
20260508002129 5 61 0.0 3.2 0.00 0.03 0.00 90 1013.4
20260508002125 5 61 0.0 3.2 0.00 0.03 0.00 89 1013.4
20260508002021 5 61 0.0 3.2 0.00 0.03 0.00 89 1013.4
20260508001920 5 61 0.0 1.6 0.00 0.03 0.00 89 1013.4
20260508001820 5 61 0.0 1.6 0.00 0.03 0.00 89 1013.4
20260508001720 5 61 0.0 1.6 0.00 0.03 0.00 89 1013.5
20260508001620 5 61 0.0 1.6 0.00 0.03 0.00 89 1013.5
20260508001521 5 61 0.0 1.6 0.00 0.03 0.00 89 1013.5
20260508001419 5 61 0.0 1.6 0.00 0.03 0.00 88 1013.5
20260508001319 5 61 0.0 1.6 0.00 0.03 0.00 88 1013.5
20260508001219 5 61 0.0 1.6 0.00 0.03 0.00 88 1013.5
20260508001118 5 61 0.0 1.6 0.00 0.03 0.00 87 1013.5
20260508000919 5 61 0.0 1.6 0.00 0.03 0.00 86 1013.5
20260508000819 5 61 0.0 1.6 0.00 0.03 0.00 87 1013.5
20260508000717 5 61 0.0 3.2 0.00 0.03 0.00 86 1013.5
20260508000617 5 61 0.0 3.2 0.00 0.03 0.00 87 1013.6
20260508000515 5 61 0.0 3.2 0.00 0.03 0.00 87 1013.6
20260508000414 5 61 0.0 3.2 0.00 0.03 0.00 86 1013.6
20260508000314 5 61 0.0 3.2 0.00 0.03 0.00 86 1013.6
20260508000214 5 61 0.0 3.2 0.00 0.03 0.00 86 1013.6
20260508000115 5 61 0.0 3.2 0.00 0.03 0.00 86 1013.6
20260508000015 5 61 0.0 3.2 0.00 0.03 0.00 87 1013.7
20260507235915 5 61 0.0 3.2 0.00 0.03 0.00 87 1013.7
20260507235815 5 61 0.0 3.2 0.00 0.03 0.00 87 1013.7
20260507235715 5 61 0.0 1.6 0.00 0.03 0.00 87 1013.7
20260507235610 5 61 0.0 0.0 0.00 0.03 0.00 87 1013.7
20260507235510 5 61 0.0 0.0 0.00 0.03 0.00 88 1013.7
20260507235411 5 61 0.0 0.0 0.00 0.03 0.00 88 1013.8
20260507235311 5 61 0.0 0.0 0.00 0.03 0.00 88 1013.7
20260507235211 5 61 0.0 0.0 0.00 0.03 0.00 88 1013.8
20260507235111 5 61 0.0 0.0 0.00 0.03 0.00 89 1013.8
20260507235010 6 61 0.0 0.0 0.00 0.03 0.00 88 1013.8
20260507234910 6 61 0.0 0.0 0.00 0.03 0.00 88 1013.8
20260507234810 6 61 0.0 0.0 0.00 0.03 0.00 88 1013.8
20260507234710 6 61 0.0 0.0 0.00 0.03 0.00 88 1013.8
20260507234615 6 61 0.0 0.0 0.00 0.03 0.00 88 1013.8
20260507234511 6 61 0.0 0.0 0.00 0.03 0.00 88 1013.8
20260507234411 6 61 0.0 0.0 0.00 0.03 0.00 88 1013.8
20260507234311 6 61 0.0 0.0 0.00 0.03 0.00 88 1013.8
20260507234211 6 61 0.0 0.0 0.00 0.03 0.00 88 1013.8
20260507234110 6 61 0.0 0.0 0.00 0.03 0.00 88 1013.8
20260507234010 6 61 0.0 0.0 0.00 0.03 0.00 89 1013.8
20260507233910 6 61 0.0 0.0 0.00 0.03 0.00 88 1013.8
20260507233810 6 61 0.0 0.0 0.00 0.03 0.00 89 1013.8
20260507233706 6 61 0.0 0.0 0.00 0.03 0.00 88 1013.8
20260507233628 6 61 0.0 0.0 0.00 0.03 0.00 89 1013.8
20260507233608 6 61 0.0 0.0 0.00 0.03 0.00 88 1013.8
20260507233507 6 61 0.0 0.0 0.00 0.03 0.00 88 1013.9
20260507233407 6 61 0.0 0.0 0.00 0.03 0.00 88 1013.9
20260507233307 6 61 0.0 0.0 0.00 0.03 0.00 88 1013.9
20260507233206 6 61 0.0 0.0 0.00 0.03 0.00 88 1013.9
20260507233106 6 61 0.0 0.0 0.00 0.03 0.00 88 1013.9
20260507233006 6 61 0.0 0.0 0.00 0.03 0.00 88 1013.9
20260507232906 6 61 0.0 0.0 0.00 0.03 0.00 88 1013.9
20260507232807 6 61 0.0 0.0 0.00 0.03 0.00 88 1013.9
20260507232707 6 61 0.0 0.0 0.00 0.03 0.00 88 1014.1
20260507232612 6 61 0.0 0.0 0.00 0.03 0.00 88 1013.9
20260507232507 6 61 0.0 0.0 0.00 0.03 0.00 88 1013.9
20260507232407 6 61 0.0 0.0 0.00 0.03 0.00 88 1014.1
20260507232307 6 61 0.0 0.0 0.00 0.03 0.00 88 1013.9
20260507232206 6 61 0.0 0.0 0.00 0.03 0.00 88 1014.1
20260507232129 6 61 0.0 0.0 0.00 0.03 0.00 88 1014.1
20260507232107 6 61 0.0 1.6 0.00 0.03 0.00 88 1014.1
20260507232006 6 61 0.0 1.6 0.00 0.03 0.00 88 1014.1
20260507231907 6 63 0.0 1.6 0.00 0.03 0.00 88 1013.9
20260507231803 6 63 0.0 1.6 0.00 0.03 0.00 87 1014.1
20260507231703 6 63 0.0 1.6 0.00 0.03 0.00 87 1014.1
20260507231602 6 63 0.0 1.6 0.00 0.03 0.00 87 1014.1
20260507231502 6 63 0.0 1.6 0.00 0.03 0.00 87 1014.1
20260507231402 6 63 0.0 1.6 0.00 0.03 0.00 87 1014.1
20260507231302 6 63 0.0 1.6 0.00 0.03 0.00 87 1014.1
20260507231202 6 63 0.0 1.6 0.00 0.03 0.00 87 1014.1
20260507231102 6 63 0.0 1.6 0.00 0.03 0.00 87 1014.2
20260507231003 6 63 0.0 1.6 0.00 0.03 0.00 87 1014.1
20260507230903 6 63 0.0 1.6 0.00 0.03 0.00 87 1014.1
20260507230803 6 63 0.0 1.6 0.00 0.03 0.00 87 1014.1
20260507230702 6 63 0.0 1.6 0.00 0.03 0.00 87 1014.2
20260507230602 6 63 0.0 1.6 0.00 0.03 0.00 87 1014.1
20260507230502 6 63 0.0 1.6 0.00 0.03 0.00 86 1014.1
20260507230402 6 63 0.0 1.6 0.00 0.03 0.00 86 1014.1
20260507230302 6 63 0.0 1.6 0.00 0.03 0.00 86 1014.1
20260507230202 6 63 0.0 3.2 0.00 0.03 0.00 86 1014.1
20260507230101 6 63 0.0 3.2 0.00 0.03 0.00 85 1014.1
20260507230001 6 63 0.0 3.2 0.00 0.03 0.00 86 1013.9
20260507225901 6 63 1.6 3.2 0.00 0.03 0.00 86 1013.9
20260507225848 6 63 1.6 3.2 0.00 0.03 0.00 86 1014.1
20260507225844 6 63 1.6 3.2 0.00 0.03 0.00 86 1014.1
20260507225840 6 63 1.6 3.2 0.00 0.03 0.00 86 1014.1
20260507225601 6 63 1.6 3.2 0.00 0.03 0.00 86 1014.1
20260507225501 6 63 1.6 3.2 0.00 0.03 0.00 86 1014.1
20260507225401 7 63 1.6 3.2 0.00 0.03 0.00 86 1014.1
20260507225301 7 63 1.6 3.2 0.00 0.03 0.00 86 1014.1
20260507225201 7 63 1.6 3.2 0.00 0.03 0.00 86 1014.2
20260507225100 7 63 1.6 3.2 0.00 0.03 0.00 86 1014.1
20260507225001 7 63 1.6 3.2 0.00 0.03 0.00 86 1014.1
20260507224901 7 63 1.6 3.2 0.00 0.03 0.00 86 1014.1
20260507224853 7 65 0.0 3.2 0.00 0.03 0.00 86 1014.1
20260507224844 7 63 1.6 3.2 0.00 0.03 0.00 86 1014.1
20260507224840 7 63 0.0 3.2 0.00 0.03 0.00 86 1014.1
20260507224601 7 65 0.0 3.2 0.00 0.03 0.00 86 1014.1
20260507224501 7 65 0.0 3.2 0.00 0.03 0.00 86 1014.1
20260507224401 7 65 0.0 3.2 0.00 0.03 0.00 86 1013.9
20260507224347 7 65 0.0 3.2 0.00 0.03 0.00 86 1014.1
20260507224342 7 65 0.0 3.2 0.00 0.03 0.00 86 1013.9
20260507224339 7 65 0.0 3.2 0.00 0.03 0.00 86 1013.9
20260507224101 7 65 0.0 3.2 0.00 0.03 0.00 86 1014.1
20260507224001 7 66 0.0 3.2 0.00 0.03 0.00 86 1013.9
20260507223901 7 66 0.0 3.2 0.00 0.03 0.00 86 1013.9
20260507223801 7 66 0.0 3.2 0.00 0.03 0.00 86 1013.9
20260507223700 7 66 0.0 3.2 0.00 0.03 0.00 86 1013.9
20260507223600 7 66 0.0 3.2 0.00 0.03 0.00 86 1013.9
20260507223500 7 66 0.0 3.2 0.00 0.03 0.00 86 1013.9
20260507223400 7 66 0.0 3.2 0.00 0.03 0.00 86 1013.9
20260507223300 7 66 0.0 3.2 0.00 0.03 0.00 86 1013.9
20260507223200 7 66 0.0 3.2 0.00 0.03 0.00 85 1013.9
20260507223101 7 66 0.0 3.2 0.00 0.03 0.00 85 1013.8
20260507223001 7 68 0.0 3.2 0.00 0.03 0.00 85 1013.8
20260507222901 7 68 0.0 3.2 0.00 0.03 0.00 85 1013.8
20260507222852 7 71 0.0 3.2 0.00 0.03 0.00 85 1013.9
20260507222845 7 70 0.0 3.2 0.00 0.03 0.00 85 1013.8
20260507222841 7 70 0.0 3.2 0.00 0.03 0.00 85 1013.9
20260507222600 7 71 0.0 3.2 0.00 0.03 0.00 85 1013.9
20260507222501 7 71 0.0 3.2 0.00 0.03 0.00 85 1013.9
20260507222401 7 71 0.0 3.2 0.00 0.03 0.00 84 1013.9
20260507222301 7 71 0.0 4.8 0.00 0.03 0.00 84 1013.9
20260507222201 8 71 1.6 4.8 0.00 0.03 0.00 84 1013.9
20260507222101 8 71 1.6 4.8 0.00 0.03 0.00 84 1013.9
20260507222001 8 71 1.6 4.8 0.00 0.03 0.00 84 1014.1
20260507221901 8 71 1.6 4.8 0.00 0.03 0.00 84 1014.1
20260507221852 8 71 3.2 4.8 0.00 0.03 0.00 84 1013.9
20260507221845 8 71 1.6 4.8 0.00 0.03 0.00 84 1013.9
20260507221841 8 71 3.2 4.8 0.00 0.03 0.00 84 1013.9
20260507221601 8 71 3.2 4.8 0.00 0.03 0.00 84 1013.9
20260507221501 8 71 3.2 4.8 0.00 0.03 0.00 84 1014.1
20260507221401 8 71 3.2 4.8 0.00 0.03 0.00 84 1013.9
20260507221350 8 71 1.6 4.8 0.00 0.03 0.00 84 1014.1
20260507221344 8 71 3.2 4.8 0.00 0.03 0.00 84 1013.9
20260507221340 8 71 1.6 4.8 0.00 0.03 0.00 84 1014.1
20260507221100 8 71 1.6 4.8 0.00 0.03 0.00 84 1014.1
20260507221000 8 67 1.6 4.8 0.00 0.03 0.00 84 1014.1
20260507220900 8 65 1.6 4.8 0.00 0.03 0.00 83 1014.1
20260507220800 8 59 1.6 4.8 0.00 0.03 0.00 83 1014.1
20260507220700 8 58 0.0 4.8 0.00 0.03 0.00 83 1014.1
20260507220628 8 57 0.0 3.2 0.00 0.03 0.00 83 1014.1
20260507220601 8 57 0.0 3.2 0.00 0.03 0.00 83 1014.1
20260507220500 8 57 0.0 1.6 0.00 0.03 0.00 83 1014.1
20260507220400 8 57 0.0 1.6 0.00 0.03 0.00 83 1014.1
20260507220300 8 57 0.0 1.6 0.00 0.03 0.00 83 1014.1
20260507220201 8 57 1.6 3.2 0.00 0.03 0.00 83 1014.1
20260507220124 8 57 1.6 3.2 0.00 0.03 0.03 83 1013.9
20260507220117 8 57 1.6 3.2 0.00 0.03 0.00 83 1014.1
20260507220109 8 57 1.6 3.2 0.00 0.03 0.00 83 1014.1
20260507220105 8 57 1.6 3.2 0.00 0.03 0.03 83 1014.1
20260507215845 8 57 1.6 3.2 0.00 0.03 0.03 83 1014.1
20260507215841 8 57 1.6 3.2 0.00 0.03 0.03 83 1013.9
20260507215601 8 57 1.6 3.2 0.00 0.03 0.03 83 1013.9
20260507215501 8 57 1.6 3.2 0.00 0.03 0.03 83 1013.9
20260507215358 8 57 1.6 3.2 0.00 0.03 0.03 83 1013.9
20260507215255 8 57 1.6 3.2 0.00 0.03 0.03 83 1013.9
20260507215129 8 57 0.0 3.2 0.00 0.03 0.03 83 1013.9
20260507215055 8 57 0.0 3.2 0.00 0.03 0.03 83 1013.9
20260507214954 8 57 0.0 3.2 0.00 0.03 0.03 83 1013.9
20260507214853 8 57 0.0 3.2 0.00 0.03 0.03 83 1013.9
20260507214843 8 57 0.0 1.6 0.00 0.03 0.03 83 1013.9
20260507214839 9 57 0.0 1.6 0.00 0.03 0.03 83 1013.9
20260507214551 8 57 0.0 1.6 0.00 0.03 0.03 83 1013.9
20260507214448 9 57 0.0 1.6 0.00 0.03 0.03 83 1013.9
20260507214348 9 57 0.0 1.6 0.00 0.03 0.03 83 1013.9
20260507214344 9 57 0.0 1.6 0.00 0.03 0.03 83 1013.9
20260507214340 9 57 0.0 1.6 0.00 0.03 0.03 83 1013.9
20260507214045 9 57 0.0 1.6 0.00 0.03 0.03 83 1013.8
20260507213943 9 57 0.0 1.6 0.00 0.03 0.03 83 1013.8
20260507213837 9 57 0.0 1.6 0.00 0.03 0.03 83 1013.8
20260507213738 9 57 0.0 1.6 0.00 0.03 0.03 83 1013.8
20260507213628 9 57 0.0 1.6 0.00 0.03 0.03 83 1013.8
20260507213535 9 57 0.0 1.6 0.00 0.03 0.03 83 1013.8
20260507213434 9 57 0.0 1.6 0.00 0.03 0.03 83 1013.8
20260507213329 9 57 0.0 0.0 0.00 0.03 0.03 83 1013.8
20260507213229 9 57 0.0 1.6 0.00 0.03 0.03 83 1013.8
20260507213129 9 57 0.0 3.2 0.00 0.03 0.03 84 1013.8
20260507213030 9 57 0.0 3.2 0.00 0.03 0.03 84 1013.8
20260507212929 9 57 0.0 4.8 0.00 0.03 0.03 84 1013.8
20260507212849 9 57 0.0 4.8 0.00 0.03 0.03 84 1013.8
20260507212845 9 57 0.0 4.8 0.00 0.03 0.03 84 1013.8
20260507212841 9 57 0.0 4.8 0.00 0.03 0.03 84 1013.9
20260507212529 9 57 0.0 4.8 0.00 0.03 0.03 84 1013.9
20260507212429 9 57 0.0 4.8 0.00 0.03 0.03 84 1013.8
20260507212329 9 57 0.0 4.8 0.00 0.03 0.03 84 1013.8
20260507212229 9 57 0.0 4.8 0.00 0.03 0.03 84 1013.8
20260507212128 9 57 0.0 4.8 0.00 0.03 0.03 84 1013.8
20260507212029 9 57 0.0 4.8 0.00 0.03 0.03 84 1013.8
20260507211929 9 40 0.0 3.2 0.00 0.03 0.03 84 1013.8
20260507211829 9 40 0.0 3.2 0.00 0.03 0.03 84 1013.8
20260507211729 9 40 0.0 3.2 0.00 0.03 0.03 84 1013.8
20260507211629 9 40 0.0 3.2 0.00 0.03 0.03 84 1013.8
20260507211529 9 40 0.0 3.2 0.00 0.03 0.03 84 1013.9
20260507211429 9 39 0.0 3.2 0.00 0.03 0.03 84 1013.9
20260507211348 9 35 0.0 3.2 0.00 0.03 0.03 84 1013.9
20260507211344 9 34 0.0 3.2 0.00 0.03 0.03 84 1013.9
20260507211340 9 34 0.0 3.2 0.00 0.03 0.03 84 1014.1
20260507210928 9 34 0.0 3.2 0.00 0.03 0.03 84 1014.1
20260507210828 9 34 0.0 3.2 0.00 0.03 0.03 84 1014.1
20260507210728 9 34 0.0 3.2 0.00 0.03 0.03 84 1014.1
20260507210628 9 34 0.0 3.2 0.00 0.03 0.03 84 1014.1
20260507210529 9 34 0.0 1.6 0.00 0.03 0.03 84 1014.2
20260507210429 9 34 0.0 1.6 0.00 0.03 0.03 84 1014.2
20260507210330 9 34 0.0 1.6 0.00 0.03 0.03 84 1014.2
20260507210230 9 34 0.0 1.6 0.00 0.03 0.03 84 1014.2
20260507210129 9 34 0.0 1.6 0.00 0.03 0.03 84 1014.2
20260507210029 9 34 0.0 1.6 0.00 0.03 0.03 84 1014.2
20260507205929 9 34 0.0 1.6 0.00 0.03 0.03 84 1014.2
20260507205829 9 34 0.0 1.6 0.00 0.03 0.03 84 1014.3
20260507205729 9 34 0.0 1.6 0.00 0.03 0.03 84 1014.3
20260507205629 9 34 0.0 1.6 0.00 0.03 0.03 84 1014.3
20260507205529 9 34 0.0 1.6 0.00 0.03 0.03 84 1014.3
20260507205429 9 34 0.0 1.6 0.00 0.03 0.03 84 1014.3
20260507205348 9 34 0.0 1.6 0.00 0.03 0.03 84 1014.3
20260507205344 9 34 0.0 1.6 0.00 0.03 0.03 84 1014.3
20260507205340 9 34 0.0 1.6 0.00 0.03 0.03 84 1014.3
20260507205029 9 34 0.0 1.6 0.00 0.03 0.03 84 1014.3
20260507204929 9 34 0.0 1.6 0.00 0.03 0.03 84 1014.3
20260507204829 9 34 0.0 1.6 0.00 0.03 0.03 84 1014.3
20260507204729 9 34 0.0 1.6 0.00 0.03 0.03 84 1014.3
20260507204629 9 34 0.0 1.6 0.00 0.03 0.03 84 1014.2
20260507204529 9 34 0.0 0.0 0.00 0.03 0.03 84 1014.2
20260507204429 9 34 0.0 0.0 0.00 0.03 0.03 84 1014.3
20260507204329 9 34 0.0 0.0 0.00 0.03 0.03 84 1014.3
20260507204228 9 34 0.0 0.0 0.00 0.03 0.03 84 1014.2
20260507204128 9 34 0.0 0.0 0.00 0.03 0.03 84 1014.2
20260507204028 9 34 0.0 0.0 0.00 0.03 0.03 83 1014.2
20260507203929 9 34 0.0 0.0 0.00 0.03 0.03 83 1014.3
20260507203829 9 34 0.0 0.0 0.00 0.03 0.03 83 1014.2
20260507203728 9 34 0.0 0.0 0.00 0.03 0.03 83 1014.3
20260507203628 9 34 0.0 0.0 0.00 0.03 0.03 83 1014.3
20260507203528 9 34 0.0 0.0 0.00 0.03 0.03 83 1014.2
20260507203429 9 34 0.0 0.0 0.00 0.03 0.03 83 1014.2
20260507203329 9 34 0.0 0.0 0.00 0.03 0.03 83 1014.2
20260507203229 9 34 0.0 0.0 0.00 0.03 0.03 82 1014.2
20260507203130 9 34 0.0 0.0 0.00 0.03 0.03 82 1014.2
20260507203029 9 34 0.0 0.0 0.00 0.03 0.03 82 1014.2
20260507202929 9 34 0.0 0.0 0.00 0.03 0.03 82 1014.2
20260507202829 9 34 0.0 0.0 0.00 0.03 0.03 83 1014.2
20260507202729 9 34 0.0 0.0 0.00 0.03 0.03 82 1014.2